| time (UTC) | temp F | wind direction | speed MPH | gust MPH | rain 1hr in | rain 24hr in | rain mn in | humidity % | barometer mb |
| 20260903235204 | 76 | 242 | 11.0 | 21.0 | 0.00 | 0.00 | 0.00 | 20 | 1007.7 |
| 20260903235105 | 76 | 242 | 10.0 | 24.0 | 0.00 | 0.00 | 0.00 | 20 | 1007.7 |
| 20260903235004 | 76 | 238 | 10.0 | 24.0 | 0.00 | 0.00 | 0.00 | 19 | 1007.7 |
| 20260903234904 | 76 | 235 | 9.0 | 24.0 | 0.00 | 0.00 | 0.00 | 19 | 1007.7 |
| 20260903234805 | 76 | 240 | 11.0 | 24.0 | 0.00 | 0.00 | 0.00 | 19 | 1007.8 |
| 20260903234704 | 76 | 239 | 11.0 | 24.0 | 0.00 | 0.00 | 0.00 | 20 | 1007.8 |
| 20260903234304 | 76 | 243 | 14.0 | 27.0 | 0.00 | 0.00 | 0.00 | 18 | 1007.7 |
| 20260903234204 | 76 | 245 | 14.0 | 27.0 | 0.00 | 0.00 | 0.00 | 18 | 1007.7 |
| 20260903234104 | 76 | 245 | 17.0 | 27.0 | 0.00 | 0.00 | 0.00 | 18 | 1007.7 |
| 20260903234005 | 76 | 256 | 13.0 | 27.0 | 0.00 | 0.00 | 0.00 | 18 | 1007.7 |
| 20260903233904 | 76 | 263 | 11.0 | 27.0 | 0.00 | 0.00 | 0.00 | 18 | 1007.7 |
| 20260903233805 | 76 | 261 | 14.0 | 27.0 | 0.00 | 0.00 | 0.00 | 18 | 1007.7 |
| 20260903233705 | 77 | 261 | 14.0 | 27.0 | 0.00 | 0.00 | 0.00 | 17 | 1007.8 |
| 20260903233604 | 77 | 266 | 12.0 | 27.0 | 0.00 | 0.00 | 0.00 | 18 | 1007.6 |
| 20260903233404 | 77 | 259 | 11.0 | 23.0 | 0.00 | 0.00 | 0.00 | 18 | 1007.8 |
| 20260903233304 | 77 | 259 | 11.0 | 23.0 | 0.00 | 0.00 | 0.00 | 18 | 1007.7 |
| 20260903233204 | 77 | 264 | 15.0 | 23.0 | 0.00 | 0.00 | 0.00 | 17 | 1007.8 |
| 20260903233104 | 77 | 269 | 11.0 | 23.0 | 0.00 | 0.00 | 0.00 | 18 | 1007.7 |
| 20260903233004 | 77 | 260 | 11.0 | 23.0 | 0.00 | 0.00 | 0.00 | 18 | 1007.8 |
| 20260903232905 | 77 | 250 | 16.0 | 23.0 | 0.00 | 0.00 | 0.00 | 18 | 1007.7 |
| 20260903232805 | 77 | 244 | 15.0 | 23.0 | 0.00 | 0.00 | 0.00 | 17 | 1007.8 |
| 20260903232704 | 77 | 236 | 14.0 | 23.0 | 0.00 | 0.00 | 0.00 | 17 | 1007.8 |
| 20260903232605 | 77 | 230 | 17.0 | 23.0 | 0.00 | 0.00 | 0.00 | 17 | 1007.8 |
| 20260903232504 | 77 | 230 | 15.0 | 23.0 | 0.00 | 0.00 | 0.00 | 17 | 1007.8 |
| 20260903232404 | 77 | 233 | 8.0 | 23.0 | 0.00 | 0.00 | 0.00 | 17 | 1007.7 |
| 20260903232306 | 77 | 230 | 11.0 | 23.0 | 0.00 | 0.00 | 0.00 | 16 | 1007.7 |
| 20260903231804 | 77 | 230 | 12.0 | 23.0 | 0.00 | 0.00 | 0.00 | 16 | 1007.6 |
| 20260903231704 | 77 | 230 | 11.0 | 23.0 | 0.00 | 0.00 | 0.00 | 17 | 1007.6 |
| 20260903231604 | 77 | 235 | 14.0 | 23.0 | 0.00 | 0.00 | 0.00 | 17 | 1007.6 |
| 20260903231505 | 77 | 234 | 14.0 | 25.0 | 0.00 | 0.00 | 0.00 | 17 | 1007.6 |
| 20260903231404 | 77 | 242 | 15.0 | 25.0 | 0.00 | 0.00 | 0.00 | 16 | 1007.5 |
| 20260903231304 | 77 | 238 | 15.0 | 25.0 | 0.00 | 0.00 | 0.00 | 16 | 1007.6 |
| 20260903231205 | 77 | 237 | 16.0 | 25.0 | 0.00 | 0.00 | 0.00 | 16 | 1007.4 |
| 20260903231105 | 77 | 237 | 15.0 | 25.0 | 0.00 | 0.00 | 0.00 | 16 | 1007.6 |
| 20260903231004 | 77 | 232 | 12.0 | 25.0 | 0.00 | 0.00 | 0.00 | 15 | 1007.5 |
| 20260903230905 | 78 | 232 | 17.0 | 25.0 | 0.00 | 0.00 | 0.00 | 14 | 1007.5 |
| 20260903230805 | 78 | 228 | 16.0 | 25.0 | 0.00 | 0.00 | 0.00 | 14 | 1007.5 |
| 20260903230704 | 78 | 225 | 14.0 | 25.0 | 0.00 | 0.00 | 0.00 | 14 | 1007.6 |
| 20260903230605 | 78 | 220 | 15.0 | 25.0 | 0.00 | 0.00 | 0.00 | 14 | 1007.5 |
| 20260903230504 | 78 | 224 | 16.0 | 25.0 | 0.00 | 0.00 | 0.00 | 14 | 1007.5 |
| 20260903230404 | 78 | 215 | 17.0 | 24.0 | 0.00 | 0.00 | 0.00 | 14 | 1007.6 |
| 20260903230304 | 78 | 216 | 17.0 | 24.0 | 0.00 | 0.00 | 0.00 | 15 | 1007.4 |
| 20260903230204 | 78 | 216 | 13.0 | 23.0 | 0.00 | 0.00 | 0.00 | 15 | 1007.5 |
| 20260903230004 | 78 | 211 | 15.0 | 23.0 | 0.00 | 0.00 | 0.00 | 13 | 1007.5 |
| 20260903225904 | 78 | 211 | 15.0 | 23.0 | 0.00 | 0.00 | 0.00 | 14 | 1007.5 |
| 20260903225804 | 78 | 213 | 17.0 | 23.0 | 0.00 | 0.00 | 0.00 | 14 | 1007.5 |
| 20260903225704 | 79 | 227 | 12.0 | 25.0 | 0.00 | 0.00 | 0.00 | 14 | 1007.5 |
| 20260903225605 | 78 | 237 | 14.0 | 25.0 | 0.00 | 0.00 | 0.00 | 14 | 1007.5 |
| 20260903225504 | 78 | 240 | 11.0 | 25.0 | 0.00 | 0.00 | 0.00 | 13 | 1007.4 |
| 20260903225404 | 78 | 254 | 11.0 | 27.0 | 0.00 | 0.00 | 0.00 | 13 | 1007.5 |
| 20260903225306 | 78 | 259 | 11.0 | 27.0 | 0.00 | 0.00 | 0.00 | 13 | 1007.5 |
| 20260903225204 | 79 | 268 | 13.0 | 27.0 | 0.00 | 0.00 | 0.00 | 13 | 1007.5 |
| 20260903225104 | 79 | 268 | 15.0 | 27.0 | 0.00 | 0.00 | 0.00 | 13 | 1007.6 |
| 20260903225004 | 79 | 274 | 15.0 | 27.0 | 0.00 | 0.00 | 0.00 | 13 | 1007.6 |
| 20260903224904 | 79 | 277 | 13.0 | 27.0 | 0.00 | 0.00 | 0.00 | 14 | 1007.5 |
| 20260903224304 | 79 | 252 | 14.0 | 25.0 | 0.00 | 0.00 | 0.00 | 14 | 1007.5 |
| 20260903224204 | 78 | 244 | 15.0 | 25.0 | 0.00 | 0.00 | 0.00 | 14 | 1007.6 |
| 20260903224104 | 78 | 250 | 14.0 | 27.0 | 0.00 | 0.00 | 0.00 | 14 | 1007.6 |
| 20260903224005 | 78 | 245 | 13.0 | 27.0 | 0.00 | 0.00 | 0.00 | 13 | 1007.6 |
| 20260903223904 | 78 | 249 | 12.0 | 27.0 | 0.00 | 0.00 | 0.00 | 14 | 1007.5 |
| 20260903223804 | 78 | 256 | 12.0 | 27.0 | 0.00 | 0.00 | 0.00 | 14 | 1007.6 |
| 20260903223704 | 78 | 254 | 11.0 | 27.0 | 0.00 | 0.00 | 0.00 | 13 | 1007.7 |
| 20260903223605 | 78 | 258 | 17.0 | 27.0 | 0.00 | 0.00 | 0.00 | 12 | 1007.6 |
| 20260903223504 | 78 | 260 | 17.0 | 27.0 | 0.00 | 0.00 | 0.00 | 13 | 1007.6 |
| 20260903223405 | 78 | 255 | 17.0 | 27.0 | 0.00 | 0.00 | 0.00 | 13 | 1007.5 |
| 20260903223304 | 78 | 252 | 17.0 | 27.0 | 0.00 | 0.00 | 0.00 | 13 | 1007.5 |
| 20260903223204 | 78 | 265 | 14.0 | 34.0 | 0.00 | 0.00 | 0.00 | 13 | 1007.6 |
| 20260903222605 | 78 | 250 | 17.0 | 34.0 | 0.00 | 0.00 | 0.00 | 13 | 1007.7 |
| 20260903222505 | 78 | 238 | 19.0 | 34.0 | 0.00 | 0.00 | 0.00 | 13 | 1007.7 |
| 20260903222404 | 78 | 230 | 14.0 | 34.0 | 0.00 | 0.00 | 0.00 | 13 | 1007.7 |
| 20260903222306 | 78 | 246 | 16.0 | 34.0 | 0.00 | 0.00 | 0.00 | 12 | 1007.6 |
| 20260903222205 | 79 | 250 | 20.0 | 34.0 | 0.00 | 0.00 | 0.00 | 12 | 1007.7 |
| 20260903222104 | 79 | 248 | 18.0 | 27.0 | 0.00 | 0.00 | 0.00 | 12 | 1007.6 |
| 20260903222005 | 79 | 233 | 15.0 | 27.0 | 0.00 | 0.00 | 0.00 | 13 | 1007.7 |
| 20260903221904 | 79 | 223 | 16.0 | 27.0 | 0.00 | 0.00 | 0.00 | 12 | 1007.7 |
| 20260903221804 | 79 | 226 | 15.0 | 27.0 | 0.00 | 0.00 | 0.00 | 12 | 1007.7 |
| 20260903221705 | 79 | 228 | 16.0 | 27.0 | 0.00 | 0.00 | 0.00 | 12 | 1007.7 |
| 20260903221605 | 79 | 241 | 11.0 | 27.0 | 0.00 | 0.00 | 0.00 | 12 | 1007.6 |
| 20260903221504 | 79 | 241 | 11.0 | 27.0 | 0.00 | 0.00 | 0.00 | 12 | 1007.6 |
| 20260903221404 | 79 | 243 | 12.0 | 27.0 | 0.00 | 0.00 | 0.00 | 11 | 1007.8 |
| 20260903221305 | 79 | 236 | 15.0 | 27.0 | 0.00 | 0.00 | 0.00 | 11 | 1007.7 |
| 20260903221204 | 79 | 231 | 13.0 | 24.0 | 0.00 | 0.00 | 0.00 | 12 | 1007.8 |
| 20260903221104 | 79 | 231 | 13.0 | 24.0 | 0.00 | 0.00 | 0.00 | 12 | 1007.7 |
| 20260903221004 | 79 | 237 | 13.0 | 24.0 | 0.00 | 0.00 | 0.00 | 12 | 1007.7 |
| 20260903220905 | 79 | 242 | 13.0 | 24.0 | 0.00 | 0.00 | 0.00 | 12 | 1007.7 |
| 20260903220804 | 79 | 242 | 15.0 | 24.0 | 0.00 | 0.00 | 0.00 | 12 | 1007.7 |
| 20260903220704 | 79 | 243 | 11.0 | 24.0 | 0.00 | 0.00 | 0.00 | 12 | 1007.6 |
| 20260903220604 | 79 | 233 | 13.0 | 24.0 | 0.00 | 0.00 | 0.00 | 12 | 1007.8 |
| 20260903220504 | 78 | 231 | 11.0 | 24.0 | 0.00 | 0.00 | 0.00 | 13 | 1007.8 |
| 20260903220405 | 78 | 231 | 11.0 | 24.0 | 0.00 | 0.00 | 0.00 | 13 | 1007.7 |
| 20260903220204 | 80 | 228 | 15.0 | 24.0 | 0.00 | 0.00 | 0.00 | 13 | 1007.8 |
| 20260903220104 | 79 | 223 | 17.0 | 24.0 | 0.00 | 0.00 | 0.00 | 11 | 1007.9 |
| 20260903220004 | 79 | 223 | 15.0 | 23.0 | 0.00 | 0.00 | 0.00 | 11 | 1007.8 |
| 20260903215904 | 79 | 223 | 15.0 | 23.0 | 0.00 | 0.00 | 0.00 | 11 | 1007.9 |
| 20260903215804 | 79 | 228 | 13.0 | 23.0 | 0.00 | 0.00 | 0.00 | 11 | 1007.8 |
| 20260903215704 | 79 | 233 | 12.0 | 23.0 | 0.00 | 0.00 | 0.00 | 12 | 1007.9 |
| 20260903215604 | 79 | 236 | 12.0 | 23.0 | 0.00 | 0.00 | 0.00 | 12 | 1007.9 |
| 20260903215505 | 79 | 242 | 12.0 | 23.0 | 0.00 | 0.00 | 0.00 | 12 | 1007.8 |
| 20260903215404 | 79 | 250 | 12.0 | 23.0 | 0.00 | 0.00 | 0.00 | 12 | 1007.9 |
| 20260903215306 | 79 | 250 | 12.0 | 23.0 | 0.00 | 0.00 | 0.00 | 12 | 1007.8 |
| 20260903215204 | 79 | 249 | 11.0 | 23.0 | 0.00 | 0.00 | 0.00 | 12 | 1007.8 |
| 20260903215105 | 79 | 250 | 11.0 | 23.0 | 0.00 | 0.00 | 0.00 | 11 | 1007.8 |
| 20260903215004 | 79 | 250 | 9.0 | 23.0 | 0.00 | 0.00 | 0.00 | 11 | 1007.8 |
| 20260903214904 | 78 | 250 | 13.0 | 23.0 | 0.00 | 0.00 | 0.00 | 12 | 1007.8 |
| 20260903214804 | 80 | 247 | 11.0 | 23.0 | 0.00 | 0.00 | 0.00 | 12 | 1007.9 |
| 20260903214704 | 78 | 242 | 14.0 | 23.0 | 0.00 | 0.00 | 0.00 | 12 | 1007.8 |
| 20260903214605 | 80 | 240 | 14.0 | 23.0 | 0.00 | 0.00 | 0.00 | 12 | 1007.9 |
| 20260903214504 | 80 | 234 | 14.0 | 23.0 | 0.00 | 0.00 | 0.00 | 12 | 1007.9 |
| 20260903214404 | 78 | 228 | 12.0 | 23.0 | 0.00 | 0.00 | 0.00 | 12 | 1007.8 |
| 20260903214305 | 78 | 228 | 12.0 | 23.0 | 0.00 | 0.00 | 0.00 | 12 | 1008.0 |
| 20260903214204 | 78 | 228 | 12.0 | 23.0 | 0.00 | 0.00 | 0.00 | 12 | 1007.9 |
| 20260903214104 | 78 | 228 | 12.0 | 24.0 | 0.00 | 0.00 | 0.00 | 12 | 1008.0 |
| 20260903214005 | 78 | 228 | 12.0 | 24.0 | 0.00 | 0.00 | 0.00 | 12 | 1007.9 |
| 20260903213904 | 78 | 228 | 8.0 | 24.0 | 0.00 | 0.00 | 0.00 | 12 | 1007.9 |
| 20260903213804 | 78 | 229 | 9.0 | 24.0 | 0.00 | 0.00 | 0.00 | 11 | 1007.9 |
| 20260903213705 | 79 | 229 | 17.0 | 24.0 | 0.00 | 0.00 | 0.00 | 12 | 1007.9 |
| 20260903213604 | 79 | 233 | 17.0 | 24.0 | 0.00 | 0.00 | 0.00 | 12 | 1007.9 |
| 20260903213504 | 79 | 239 | 17.0 | 24.0 | 0.00 | 0.00 | 0.00 | 12 | 1008.0 |
| 20260903213405 | 79 | 241 | 17.0 | 24.0 | 0.00 | 0.00 | 0.00 | 12 | 1008.0 |
| 20260903213304 | 79 | 242 | 17.0 | 24.0 | 0.00 | 0.00 | 0.00 | 12 | 1008.0 |
| 20260903213204 | 78 | 240 | 15.0 | 24.0 | 0.00 | 0.00 | 0.00 | 12 | 1007.9 |
| 20260903213104 | 79 | 241 | 15.0 | 24.0 | 0.00 | 0.00 | 0.00 | 12 | 1008.0 |
| 20260903213005 | 79 | 242 | 15.0 | 24.0 | 0.00 | 0.00 | 0.00 | 12 | 1007.9 |
| 20260903212904 | 79 | 242 | 15.0 | 24.0 | 0.00 | 0.00 | 0.00 | 12 | 1007.9 |
| 20260903212804 | 79 | 236 | 15.0 | 24.0 | 0.00 | 0.00 | 0.00 | 11 | 1008.0 |
| 20260903212705 | 79 | 236 | 10.0 | 24.0 | 0.00 | 0.00 | 0.00 | 11 | 1008.0 |
| 20260903212604 | 79 | 233 | 15.0 | 24.0 | 0.00 | 0.00 | 0.00 | 11 | 1008.0 |
| 20260903212504 | 79 | 227 | 14.0 | 24.0 | 0.00 | 0.00 | 0.00 | 12 | 1008.0 |
| 20260903212404 | 79 | 228 | 15.0 | 23.0 | 0.00 | 0.00 | 0.00 | 11 | 1008.1 |
| 20260903212306 | 79 | 231 | 15.0 | 23.0 | 0.00 | 0.00 | 0.00 | 10 | 1008.0 |
| 20260903211205 | 78 | 207 | 15.0 | 26.0 | 0.00 | 0.00 | 0.00 | 12 | 1008.2 |
| 20260903211104 | 78 | 208 | 13.0 | 26.0 | 0.00 | 0.00 | 0.00 | 12 | 1008.1 |
| 20260903211005 | 78 | 217 | 13.0 | 26.0 | 0.00 | 0.00 | 0.00 | 12 | 1008.3 |
| 20260903210904 | 78 | 218 | 13.0 | 26.0 | 0.00 | 0.00 | 0.00 | 12 | 1008.3 |
| 20260903210804 | 78 | 226 | 13.0 | 26.0 | 0.00 | 0.00 | 0.00 | 12 | 1008.3 |
| 20260903210705 | 78 | 230 | 13.0 | 26.0 | 0.00 | 0.00 | 0.00 | 12 | 1008.2 |
| 20260903210605 | 78 | 234 | 17.0 | 26.0 | 0.00 | 0.00 | 0.00 | 12 | 1008.3 |
| 20260903210504 | 78 | 234 | 16.0 | 25.0 | 0.00 | 0.00 | 0.00 | 12 | 1008.3 |
| 20260903210405 | 79 | 230 | 18.0 | 24.0 | 0.00 | 0.00 | 0.00 | 12 | 1008.3 |
| 20260903210304 | 79 | 234 | 16.0 | 24.0 | 0.00 | 0.00 | 0.00 | 11 | 1008.2 |
| 20260903210204 | 79 | 232 | 17.0 | 24.0 | 0.00 | 0.00 | 0.00 | 11 | 1008.3 |
| 20260903210104 | 79 | 234 | 11.0 | 21.0 | 0.00 | 0.00 | 0.00 | 11 | 1008.3 |
| 20260903210004 | 79 | 223 | 12.0 | 21.0 | 0.00 | 0.00 | 0.00 | 11 | 1008.4 |
| 20260903205904 | 79 | 227 | 13.0 | 21.0 | 0.00 | 0.00 | 0.00 | 10 | 1008.3 |
| 20260903205804 | 79 | 224 | 12.0 | 21.0 | 0.00 | 0.00 | 0.00 | 11 | 1008.4 |
| 20260903205705 | 79 | 222 | 14.0 | 21.0 | 0.00 | 0.00 | 0.00 | 11 | 1008.4 |
| 20260903205604 | 79 | 229 | 11.0 | 21.0 | 0.00 | 0.00 | 0.00 | 12 | 1008.3 |
| 20260903205504 | 79 | 235 | 11.0 | 21.0 | 0.00 | 0.00 | 0.00 | 12 | 1008.4 |
| 20260903205404 | 79 | 251 | 15.0 | 21.0 | 0.00 | 0.00 | 0.00 | 12 | 1008.3 |
| 20260903205306 | 79 | 258 | 13.0 | 21.0 | 0.00 | 0.00 | 0.00 | 11 | 1008.3 |
| 20260903205204 | 79 | 254 | 11.0 | 21.0 | 0.00 | 0.00 | 0.00 | 11 | 1008.4 |
| 20260903205104 | 79 | 244 | 8.0 | 23.0 | 0.00 | 0.00 | 0.00 | 11 | 1008.4 |
| 20260903205005 | 79 | 245 | 11.0 | 23.0 | 0.00 | 0.00 | 0.00 | 11 | 1008.5 |
| 20260903204904 | 79 | 246 | 13.0 | 23.0 | 0.00 | 0.00 | 0.00 | 11 | 1008.6 |
| 20260903204804 | 79 | 244 | 11.0 | 23.0 | 0.00 | 0.00 | 0.00 | 11 | 1008.5 |
| 20260903204704 | 79 | 244 | 9.0 | 23.0 | 0.00 | 0.00 | 0.00 | 11 | 1008.5 |
| 20260903204604 | 79 | 243 | 15.0 | 23.0 | 0.00 | 0.00 | 0.00 | 11 | 1008.6 |
| 20260903204505 | 79 | 238 | 15.0 | 23.0 | 0.00 | 0.00 | 0.00 | 11 | 1008.5 |
| 20260903204404 | 79 | 235 | 11.0 | 23.0 | 0.00 | 0.00 | 0.00 | 11 | 1008.6 |
| 20260903204304 | 79 | 233 | 11.0 | 23.0 | 0.00 | 0.00 | 0.00 | 11 | 1008.6 |
| 20260903204205 | 79 | 244 | 13.0 | 23.0 | 0.00 | 0.00 | 0.00 | 11 | 1008.6 |
| 20260903204104 | 79 | 244 | 15.0 | 23.0 | 0.00 | 0.00 | 0.00 | 11 | 1008.6 |
| 20260903204004 | 79 | 235 | 15.0 | 21.0 | 0.00 | 0.00 | 0.00 | 11 | 1008.6 |
| 20260903203904 | 79 | 230 | 15.0 | 21.0 | 0.00 | 0.00 | 0.00 | 11 | 1008.5 |
| 20260903203804 | 79 | 235 | 12.0 | 21.0 | 0.00 | 0.00 | 0.00 | 11 | 1008.6 |
| 20260903203704 | 79 | 238 | 12.0 | 21.0 | 0.00 | 0.00 | 0.00 | 11 | 1008.6 |
| 20260903203604 | 79 | 248 | 12.0 | 21.0 | 0.00 | 0.00 | 0.00 | 11 | 1008.6 |
| 20260903203504 | 79 | 251 | 12.0 | 21.0 | 0.00 | 0.00 | 0.00 | 11 | 1008.6 |
| 20260903203404 | 79 | 242 | 14.0 | 21.0 | 0.00 | 0.00 | 0.00 | 11 | 1008.7 |
| 20260903203205 | 79 | 233 | 15.0 | 21.0 | 0.00 | 0.00 | 0.00 | 10 | 1008.6 |
| 20260903202504 | 79 | 243 | 11.0 | 21.0 | 0.00 | 0.00 | 0.00 | 11 | 1008.8 |
| 20260903202405 | 79 | 250 | 11.0 | 21.0 | 0.00 | 0.00 | 0.00 | 11 | 1008.8 |
| 20260903202306 | 79 | 251 | 13.0 | 21.0 | 0.00 | 0.00 | 0.00 | 11 | 1008.8 |
| 20260903202204 | 79 | 249 | 13.0 | 21.0 | 0.00 | 0.00 | 0.00 | 11 | 1008.8 |
| 20260903202105 | 78 | 242 | 13.0 | 22.0 | 0.00 | 0.00 | 0.00 | 11 | 1008.9 |
| 20260903202004 | 78 | 240 | 15.0 | 22.0 | 0.00 | 0.00 | 0.00 | 11 | 1008.8 |
| 20260903201905 | 78 | 240 | 14.0 | 22.0 | 0.00 | 0.00 | 0.00 | 11 | 1008.8 |
| 20260903201805 | 79 | 240 | 13.0 | 22.0 | 0.00 | 0.00 | 0.00 | 11 | 1008.8 |
| 20260903201704 | 79 | 248 | 13.0 | 22.0 | 0.00 | 0.00 | 0.00 | 11 | 1008.9 |
| 20260903201605 | 79 | 249 | 11.0 | 22.0 | 0.00 | 0.00 | 0.00 | 11 | 1008.7 |
| 20260903201504 | 79 | 244 | 11.0 | 22.0 | 0.00 | 0.00 | 0.00 | 11 | 1008.8 |
| 20260903201404 | 79 | 238 | 15.0 | 22.0 | 0.00 | 0.00 | 0.00 | 11 | 1008.8 |
| 20260903201304 | 79 | 241 | 10.0 | 22.0 | 0.00 | 0.00 | 0.00 | 11 | 1008.9 |
| 20260903201204 | 79 | 246 | 17.0 | 22.0 | 0.00 | 0.00 | 0.00 | 10 | 1008.9 |
| 20260903201104 | 79 | 246 | 15.0 | 21.0 | 0.00 | 0.00 | 0.00 | 11 | 1008.9 |
| 20260903201004 | 79 | 247 | 15.0 | 21.0 | 0.00 | 0.00 | 0.00 | 11 | 1008.9 |
| 20260903200904 | 79 | 253 | 15.0 | 21.0 | 0.00 | 0.00 | 0.00 | 11 | 1008.9 |
| 20260903200804 | 79 | 254 | 12.0 | 20.0 | 0.00 | 0.00 | 0.00 | 11 | 1008.9 |
| 20260903200705 | 79 | 246 | 11.0 | 20.0 | 0.00 | 0.00 | 0.00 | 11 | 1008.9 |
| 20260903200604 | 79 | 240 | 13.0 | 19.0 | 0.00 | 0.00 | 0.00 | 11 | 1008.9 |
| 20260903200504 | 79 | 241 | 14.0 | 19.0 | 0.00 | 0.00 | 0.00 | 11 | 1008.9 |
| 20260903200405 | 78 | 247 | 13.0 | 18.0 | 0.00 | 0.00 | 0.00 | 12 | 1008.8 |
| 20260903200304 | 78 | 241 | 12.0 | 18.0 | 0.00 | 0.00 | 0.00 | 12 | 1009.0 |
| 20260903200204 | 78 | 239 | 8.0 | 18.0 | 0.00 | 0.00 | 0.00 | 12 | 1008.9 |
| 20260903200104 | 78 | 240 | 13.0 | 18.0 | 0.00 | 0.00 | 0.00 | 11 | 1009.0 |
| 20260903200004 | 78 | 240 | 11.0 | 17.0 | 0.00 | 0.00 | 0.00 | 12 | 1009.1 |
| 20260903195904 | 78 | 234 | 12.0 | 17.0 | 0.00 | 0.00 | 0.00 | 12 | 1009.0 |
| 20260903195804 | 78 | 234 | 11.0 | 17.0 | 0.00 | 0.00 | 0.00 | 12 | 1009.1 |
| 20260903195705 | 78 | 234 | 11.0 | 18.0 | 0.00 | 0.00 | 0.00 | 12 | 1009.0 |
| 20260903195604 | 78 | 234 | 9.0 | 18.0 | 0.00 | 0.00 | 0.00 | 12 | 1009.0 |
| 20260903195504 | 77 | 234 | 8.0 | 18.0 | 0.00 | 0.00 | 0.00 | 12 | 1009.1 |
| 20260903195405 | 77 | 229 | 8.0 | 18.0 | 0.00 | 0.00 | 0.00 | 13 | 1009.1 |
| 20260903195306 | 77 | 230 | 10.0 | 22.0 | 0.00 | 0.00 | 0.00 | 12 | 1009.0 |
| 20260903195104 | 77 | 246 | 8.0 | 22.0 | 0.00 | 0.00 | 0.00 | 13 | 1009.1 |
| 20260903195004 | 77 | 248 | 8.0 | 22.0 | 0.00 | 0.00 | 0.00 | 13 | 1009.0 |
| 20260903194904 | 77 | 248 | 9.0 | 22.0 | 0.00 | 0.00 | 0.00 | 13 | 1009.1 |
| 20260903194804 | 77 | 252 | 13.0 | 22.0 | 0.00 | 0.00 | 0.00 | 13 | 1009.2 |
| 20260903194704 | 77 | 251 | 12.0 | 22.0 | 0.00 | 0.00 | 0.00 | 12 | 1009.1 |
| 20260903194204 | 77 | 247 | 10.0 | 19.0 | 0.00 | 0.00 | 0.00 | 13 | 1009.2 |
| 20260903194105 | 77 | 244 | 12.0 | 21.0 | 0.00 | 0.00 | 0.00 | 13 | 1009.2 |
| 20260903194004 | 77 | 241 | 12.0 | 21.0 | 0.00 | 0.00 | 0.00 | 13 | 1009.2 |
| 20260903193904 | 77 | 241 | 10.0 | 21.0 | 0.00 | 0.00 | 0.00 | 13 | 1009.2 |
| 20260903193804 | 77 | 238 | 9.0 | 21.0 | 0.00 | 0.00 | 0.00 | 12 | 1009.2 |
| 20260903193605 | 77 | 246 | 9.0 | 21.0 | 0.00 | 0.00 | 0.00 | 12 | 1009.3 |
| 20260903193504 | 77 | 245 | 5.0 | 21.0 | 0.00 | 0.00 | 0.00 | 12 | 1009.3 |
| 20260903193404 | 77 | 251 | 7.0 | 21.0 | 0.00 | 0.00 | 0.00 | 12 | 1009.3 |
| 20260903193304 | 77 | 259 | 11.0 | 21.0 | 0.00 | 0.00 | 0.00 | 12 | 1009.3 |
| 20260903193205 | 77 | 259 | 13.0 | 21.0 | 0.00 | 0.00 | 0.00 | 12 | 1009.4 |
| 20260903193104 | 77 | 256 | 14.0 | 21.0 | 0.00 | 0.00 | 0.00 | 13 | 1009.4 |
| 20260903193004 | 77 | 261 | 14.0 | 21.0 | 0.00 | 0.00 | 0.00 | 13 | 1009.4 |
| 20260903192905 | 77 | 263 | 11.0 | 20.0 | 0.00 | 0.00 | 0.00 | 12 | 1009.4 |
| 20260903192804 | 77 | 258 | 11.0 | 23.0 | 0.00 | 0.00 | 0.00 | 12 | 1009.4 |
| 20260903192605 | 77 | 252 | 12.0 | 23.0 | 0.00 | 0.00 | 0.00 | 12 | 1009.5 |
| 20260903192504 | 77 | 247 | 11.0 | 23.0 | 0.00 | 0.00 | 0.00 | 12 | 1009.5 |
| 20260903192404 | 77 | 243 | 13.0 | 23.0 | 0.00 | 0.00 | 0.00 | 12 | 1009.6 |
| 20260903192306 | 77 | 236 | 11.0 | 23.0 | 0.00 | 0.00 | 0.00 | 12 | 1009.4 |
| 20260903192205 | 77 | 236 | 10.0 | 23.0 | 0.00 | 0.00 | 0.00 | 12 | 1009.5 |
| 20260903192104 | 77 | 232 | 13.0 | 23.0 | 0.00 | 0.00 | 0.00 | 12 | 1009.6 |
| 20260903192004 | 77 | 230 | 9.0 | 23.0 | 0.00 | 0.00 | 0.00 | 13 | 1009.4 |
| 20260903191905 | 77 | 230 | 10.0 | 23.0 | 0.00 | 0.00 | 0.00 | 13 | 1009.5 |
| 20260903191804 | 77 | 230 | 14.0 | 23.0 | 0.00 | 0.00 | 0.00 | 13 | 1009.6 |
| 20260903191605 | 76 | 234 | 11.0 | 23.0 | 0.00 | 0.00 | 0.00 | 13 | 1009.6 |
| 20260903191504 | 76 | 234 | 11.0 | 23.0 | 0.00 | 0.00 | 0.00 | 13 | 1009.7 |
| 20260903191404 | 76 | 231 | 11.0 | 23.0 | 0.00 | 0.00 | 0.00 | 12 | 1009.7 |
| 20260903191305 | 76 | 229 | 13.0 | 23.0 | 0.00 | 0.00 | 0.00 | 13 | 1009.7 |
| 20260903191204 | 76 | 240 | 13.0 | 22.0 | 0.00 | 0.00 | 0.00 | 13 | 1009.6 |
| 20260903191104 | 77 | 236 | 15.0 | 22.0 | 0.00 | 0.00 | 0.00 | 12 | 1009.7 |
| 20260903191005 | 77 | 232 | 11.0 | 21.0 | 0.00 | 0.00 | 0.00 | 13 | 1009.8 |
| 20260903190904 | 77 | 225 | 13.0 | 24.0 | 0.00 | 0.00 | 0.00 | 13 | 1009.7 |
| 20260903190804 | 76 | 225 | 9.0 | 24.0 | 0.00 | 0.00 | 0.00 | 13 | 1009.9 |
| 20260903190704 | 76 | 225 | 10.0 | 24.0 | 0.00 | 0.00 | 0.00 | 13 | 1009.8 |
| 20260903190605 | 76 | 221 | 14.0 | 24.0 | 0.00 | 0.00 | 0.00 | 13 | 1009.8 |
| 20260903190504 | 76 | 221 | 11.0 | 24.0 | 0.00 | 0.00 | 0.00 | 13 | 1009.9 |
| 20260903190404 | 76 | 221 | 11.0 | 24.0 | 0.00 | 0.00 | 0.00 | 13 | 1009.9 |
| 20260903190304 | 76 | 227 | 13.0 | 24.0 | 0.00 | 0.00 | 0.00 | 13 | 1009.9 |
| 20260903190205 | 76 | 219 | 14.0 | 24.0 | 0.00 | 0.00 | 0.00 | 13 | 1009.9 |
| 20260903190004 | 76 | 226 | 17.0 | 24.0 | 0.00 | 0.00 | 0.00 | 13 | 1009.9 |
| 20260903185905 | 76 | 231 | 15.0 | 21.0 | 0.00 | 0.00 | 0.00 | 14 | 1009.9 |
| 20260903185804 | 76 | 236 | 11.0 | 19.0 | 0.00 | 0.00 | 0.00 | 13 | 1010.0 |
| 20260903185704 | 75 | 232 | 11.0 | 22.0 | 0.00 | 0.00 | 0.00 | 13 | 1010.0 |
| 20260903185605 | 75 | 238 | 12.0 | 22.0 | 0.00 | 0.00 | 0.00 | 13 | 1010.0 |
| 20260903185504 | 75 | 238 | 12.0 | 22.0 | 0.00 | 0.00 | 0.00 | 13 | 1010.1 |
| 20260903185404 | 75 | 238 | 11.0 | 22.0 | 0.00 | 0.00 | 0.00 | 13 | 1010.1 |
| 20260903185306 | 75 | 240 | 11.0 | 22.0 | 0.00 | 0.00 | 0.00 | 13 | 1010.1 |
| 20260903185204 | 75 | 246 | 8.0 | 22.0 | 0.00 | 0.00 | 0.00 | 13 | 1010.1 |
| 20260903185104 | 75 | 246 | 8.0 | 22.0 | 0.00 | 0.00 | 0.00 | 13 | 1010.1 |
| 20260903185004 | 75 | 246 | 10.0 | 22.0 | 0.00 | 0.00 | 0.00 | 13 | 1010.2 |
| 20260903184904 | 75 | 246 | 10.0 | 22.0 | 0.00 | 0.00 | 0.00 | 13 | 1010.1 |
| 20260903184804 | 75 | 250 | 14.0 | 22.0 | 0.00 | 0.00 | 0.00 | 13 | 1010.0 |
| 20260903184704 | 75 | 262 | 14.0 | 20.0 | 0.00 | 0.00 | 0.00 | 13 | 1010.0 |
| 20260903184504 | 75 | 267 | 11.0 | 18.0 | 0.00 | 0.00 | 0.00 | 14 | 1010.1 |
| 20260903184404 | 75 | 266 | 8.0 | 18.0 | 0.00 | 0.00 | 0.00 | 14 | 1010.1 |
| 20260903184305 | 75 | 257 | 10.0 | 18.0 | 0.00 | 0.00 | 0.00 | 13 | 1010.1 |
| 20260903184204 | 75 | 250 | 12.0 | 20.0 | 0.00 | 0.00 | 0.00 | 14 | 1010.2 |
| 20260903184104 | 75 | 249 | 9.0 | 20.0 | 0.00 | 0.00 | 0.00 | 14 | 1010.2 |
| 20260903184004 | 75 | 241 | 11.0 | 20.0 | 0.00 | 0.00 | 0.00 | 13 | 1010.1 |
| 20260903183904 | 75 | 240 | 11.0 | 22.0 | 0.00 | 0.00 | 0.00 | 13 | 1010.3 |
| 20260903183804 | 75 | 232 | 13.0 | 22.0 | 0.00 | 0.00 | 0.00 | 13 | 1010.3 |
| 20260903183704 | 75 | 227 | 11.0 | 22.0 | 0.00 | 0.00 | 0.00 | 13 | 1010.3 |
| 20260903183605 | 74 | 221 | 8.0 | 22.0 | 0.00 | 0.00 | 0.00 | 14 | 1010.3 |
| 20260903183504 | 74 | 219 | 8.0 | 22.0 | 0.00 | 0.00 | 0.00 | 14 | 1010.3 |
| 20260903183404 | 74 | 219 | 10.0 | 22.0 | 0.00 | 0.00 | 0.00 | 13 | 1010.4 |
| 20260903183304 | 74 | 219 | 12.0 | 22.0 | 0.00 | 0.00 | 0.00 | 13 | 1010.3 |
| 20260903183204 | 74 | 219 | 12.0 | 22.0 | 0.00 | 0.00 | 0.00 | 14 | 1010.4 |
| 20260903183104 | 75 | 219 | 11.0 | 22.0 | 0.00 | 0.00 | 0.00 | 13 | 1010.3 |
| 20260903183005 | 75 | 224 | 11.0 | 22.0 | 0.00 | 0.00 | 0.00 | 13 | 1010.5 |
| 20260903182404 | 74 | 227 | 9.0 | 22.0 | 0.00 | 0.00 | 0.00 | 13 | 1010.3 |
| 20260903182306 | 74 | 227 | 11.0 | 24.0 | 0.00 | 0.00 | 0.00 | 13 | 1010.3 |
| 20260903182204 | 74 | 227 | 10.0 | 24.0 | 0.00 | 0.00 | 0.00 | 13 | 1010.4 |
| 20260903182104 | 74 | 230 | 11.0 | 24.0 | 0.00 | 0.00 | 0.00 | 14 | 1010.5 |
| 20260903182004 | 74 | 230 | 7.0 | 24.0 | 0.00 | 0.00 | 0.00 | 14 | 1010.5 |
| 20260903181904 | 74 | 232 | 11.0 | 24.0 | 0.00 | 0.00 | 0.00 | 14 | 1010.6 |
| 20260903181804 | 74 | 228 | 13.0 | 24.0 | 0.00 | 0.00 | 0.00 | 14 | 1010.5 |
| 20260903181704 | 74 | 232 | 14.0 | 24.0 | 0.00 | 0.00 | 0.00 | 14 | 1010.5 |
| 20260903181604 | 74 | 232 | 17.0 | 24.0 | 0.00 | 0.00 | 0.00 | 13 | 1010.5 |
| 20260903181504 | 74 | 232 | 17.0 | 24.0 | 0.00 | 0.00 | 0.00 | 13 | 1010.5 |
| 20260903181405 | 74 | 233 | 14.0 | 24.0 | 0.00 | 0.00 | 0.00 | 14 | 1010.6 |
| 20260903181304 | 74 | 233 | 16.0 | 24.0 | 0.00 | 0.00 | 0.00 | 14 | 1010.6 |
| 20260903181204 | 74 | 233 | 11.0 | 22.0 | 0.00 | 0.00 | 0.00 | 15 | 1010.5 |
| 20260903181105 | 73 | 229 | 8.0 | 22.0 | 0.00 | 0.00 | 0.00 | 15 | 1010.6 |
| 20260903181004 | 73 | 229 | 11.0 | 22.0 | 0.00 | 0.00 | 0.00 | 14 | 1010.6 |
| 20260903180904 | 74 | 234 | 15.0 | 22.0 | 0.00 | 0.00 | 0.00 | 14 | 1010.6 |
| 20260903180805 | 74 | 238 | 11.0 | 20.0 | 0.00 | 0.00 | 0.00 | 14 | 1010.6 |
| 20260903180305 | 74 | 263 | 10.0 | 20.0 | 0.00 | 0.00 | 0.00 | 13 | 1010.6 |
| 20260903180204 | 74 | 267 | 11.0 | 21.0 | 0.00 | 0.00 | 0.00 | 13 | 1010.6 |
| 20260903180104 | 74 | 277 | 8.0 | 21.0 | 0.00 | 0.00 | 0.00 | 13 | 1010.7 |
| 20260903180004 | 74 | 270 | 8.0 | 21.0 | 0.00 | 0.00 | 0.00 | 13 | 1010.7 |
| 20260903175904 | 74 | 260 | 12.0 | 21.0 | 0.00 | 0.00 | 0.00 | 13 | 1010.7 |
| 20260903175804 | 74 | 255 | 11.0 | 21.0 | 0.00 | 0.00 | 0.00 | 13 | 1010.7 |
| 20260903175704 | 74 | 240 | 12.0 | 21.0 | 0.00 | 0.00 | 0.00 | 13 | 1010.7 |
| 20260903175605 | 73 | 241 | 9.0 | 21.0 | 0.00 | 0.00 | 0.00 | 13 | 1010.7 |
| 20260903175504 | 73 | 241 | 10.0 | 21.0 | 0.00 | 0.00 | 0.00 | 13 | 1010.8 |
| 20260903175404 | 73 | 234 | 13.0 | 21.0 | 0.00 | 0.00 | 0.00 | 13 | 1010.8 |
| 20260903175306 | 73 | 237 | 12.0 | 21.0 | 0.00 | 0.00 | 0.00 | 14 | 1010.7 |
| 20260903175204 | 73 | 241 | 14.0 | 21.0 | 0.00 | 0.00 | 0.00 | 14 | 1010.8 |
| 20260903175105 | 73 | 233 | 12.0 | 21.0 | 0.00 | 0.00 | 0.00 | 14 | 1010.8 |
| 20260903175004 | 73 | 236 | 12.0 | 21.0 | 0.00 | 0.00 | 0.00 | 14 | 1010.7 |
| 20260903174904 | 73 | 238 | 14.0 | 21.0 | 0.00 | 0.00 | 0.00 | 14 | 1010.7 |
| 20260903174804 | 73 | 246 | 12.0 | 19.0 | 0.00 | 0.00 | 0.00 | 14 | 1010.8 |
| 20260903174705 | 73 | 251 | 11.0 | 19.0 | 0.00 | 0.00 | 0.00 | 14 | 1010.6 |
| 20260903174604 | 73 | 244 | 11.0 | 19.0 | 0.00 | 0.00 | 0.00 | 14 | 1010.6 |
| 20260903174504 | 73 | 248 | 11.0 | 19.0 | 0.00 | 0.00 | 0.00 | 14 | 1010.7 |
| 20260903174404 | 73 | 247 | 11.0 | 20.0 | 0.00 | 0.00 | 0.00 | 14 | 1010.6 |
| 20260903174304 | 73 | 242 | 11.0 | 20.0 | 0.00 | 0.00 | 0.00 | 14 | 1010.7 |
| 20260903174204 | 73 | 237 | 10.0 | 20.0 | 0.00 | 0.00 | 0.00 | 14 | 1010.7 |
| 20260903174105 | 73 | 238 | 12.0 | 20.0 | 0.00 | 0.00 | 0.00 | 14 | 1010.7 |
| 20260903174004 | 73 | 238 | 9.0 | 20.0 | 0.00 | 0.00 | 0.00 | 14 | 1010.7 |
| 20260903173904 | 73 | 238 | 11.0 | 20.0 | 0.00 | 0.00 | 0.00 | 14 | 1010.7 |
| 20260903173804 | 73 | 236 | 8.0 | 20.0 | 0.00 | 0.00 | 0.00 | 14 | 1010.7 |
| 20260903173705 | 73 | 236 | 10.0 | 20.0 | 0.00 | 0.00 | 0.00 | 14 | 1010.8 |
| 20260903173504 | 73 | 230 | 8.0 | 20.0 | 0.00 | 0.00 | 0.00 | 14 | 1010.8 |
| 20260903173404 | 73 | 231 | 12.0 | 20.0 | 0.00 | 0.00 | 0.00 | 14 | 1010.9 |
| 20260903173304 | 73 | 229 | 7.0 | 15.0 | 0.00 | 0.00 | 0.00 | 14 | 1010.9 |
| 20260903173204 | 73 | 228 | 8.0 | 15.0 | 0.00 | 0.00 | 0.00 | 14 | 1010.9 |
| 20260903173104 | 73 | 228 | 8.0 | 15.0 | 0.00 | 0.00 | 0.00 | 15 | 1011.0 |
| 20260903173004 | 73 | 228 | 8.0 | 15.0 | 0.00 | 0.00 | 0.00 | 15 | 1010.9 |
| 20260903172904 | 73 | 228 | 5.0 | 15.0 | 0.00 | 0.00 | 0.00 | 14 | 1010.9 |
| 20260903172804 | 73 | 224 | 8.0 | 15.0 | 0.00 | 0.00 | 0.00 | 14 | 1011.0 |
| 20260903172705 | 73 | 224 | 5.0 | 15.0 | 0.00 | 0.00 | 0.00 | 14 | 1010.9 |
| 20260903172604 | 73 | 228 | 10.0 | 16.0 | 0.00 | 0.00 | 0.00 | 15 | 1010.9 |
| 20260903172505 | 73 | 242 | 6.0 | 16.0 | 0.00 | 0.00 | 0.00 | 15 | 1010.9 |
| 20260903172404 | 72 | 256 | 8.0 | 16.0 | 0.00 | 0.00 | 0.00 | 15 | 1010.9 |
| 20260903172306 | 72 | 263 | 5.0 | 16.0 | 0.00 | 0.00 | 0.00 | 16 | 1010.9 |
| 20260903172205 | 72 | 273 | 5.0 | 19.0 | 0.00 | 0.00 | 0.00 | 16 | 1010.8 |
| 20260903172104 | 72 | 267 | 6.0 | 22.0 | 0.00 | 0.00 | 0.00 | 15 | 1011.0 |
| 20260903172004 | 73 | 266 | 11.0 | 22.0 | 0.00 | 0.00 | 0.00 | 14 | 1011.1 |
| 20260903171904 | 73 | 268 | 11.0 | 22.0 | 0.00 | 0.00 | 0.00 | 15 | 1011.1 |
| 20260903171804 | 73 | 270 | 8.0 | 22.0 | 0.00 | 0.00 | 0.00 | 15 | 1011.0 |
| 20260903171704 | 72 | 269 | 8.0 | 22.0 | 0.00 | 0.00 | 0.00 | 15 | 1011.1 |
| 20260903171608 | 72 | 256 | 10.0 | 22.0 | 0.00 | 0.00 | 0.00 | 16 | 1011.1 |
| 20260903171504 | 72 | 246 | 10.0 | 22.0 | 0.00 | 0.00 | 0.00 | 16 | 1011.2 |
| 20260903171404 | 72 | 241 | 11.0 | 22.0 | 0.00 | 0.00 | 0.00 | 16 | 1011.2 |
| 20260903171304 | 72 | 235 | 11.0 | 22.0 | 0.00 | 0.00 | 0.00 | 16 | 1011.2 |
| 20260903171204 | 72 | 225 | 13.0 | 22.0 | 0.00 | 0.00 | 0.00 | 16 | 1011.2 |
| 20260903171104 | 71 | 219 | 8.0 | 15.0 | 0.00 | 0.00 | 0.00 | 16 | 1011.2 |
| 20260903171004 | 71 | 213 | 10.0 | 14.0 | 0.00 | 0.00 | 0.00 | 16 | 1011.2 |
| 20260903170905 | 71 | 207 | 5.0 | 14.0 | 0.00 | 0.00 | 0.00 | 16 | 1011.0 |
| 20260903170704 | 71 | 186 | 11.0 | 14.0 | 0.00 | 0.00 | 0.00 | 16 | 1011.1 |
| 20260903170605 | 71 | 171 | 8.0 | 12.0 | 0.00 | 0.00 | 0.00 | 17 | 1011.0 |
| 20260903170504 | 70 | 139 | 5.0 | 10.0 | 0.00 | 0.00 | 0.00 | 17 | 1011.1 |
| 20260903170405 | 70 | 134 | 3.0 | 8.0 | 0.00 | 0.00 | 0.00 | 18 | 1011.1 |
| 20260903170304 | 70 | 138 | 3.0 | 8.0 | 0.00 | 0.00 | 0.00 | 18 | 1011.2 |
| 20260903170205 | 70 | 150 | 3.0 | 5.0 | 0.00 | 0.00 | 0.00 | 18 | 1011.1 |
| 20260903170104 | 69 | 156 | 2.0 | 5.0 | 0.00 | 0.00 | 0.00 | 17 | 1011.2 |
| 20260903170004 | 69 | 0 | 0.0 | 5.0 | 0.00 | 0.00 | 0.00 | 17 | 1011.2 |
| 20260903165904 | 69 | 145 | 1.0 | 5.0 | 0.00 | 0.00 | 0.00 | 17 | 1011.2 |
| 20260903165804 | 69 | 142 | 2.0 | 5.0 | 0.00 | 0.00 | 0.00 | 17 | 1011.2 |
| 20260903165605 | 69 | 145 | 2.0 | 5.0 | 0.00 | 0.00 | 0.00 | 17 | 1011.2 |
| 20260903165504 | 69 | 157 | 2.0 | 4.0 | 0.00 | 0.00 | 0.00 | 17 | 1011.2 |
| 20260903165405 | 69 | 163 | 1.0 | 4.0 | 0.00 | 0.00 | 0.00 | 17 | 1011.2 |
| 20260903165306 | 69 | 194 | 2.0 | 6.0 | 0.00 | 0.00 | 0.00 | 17 | 1011.2 |
| 20260903165104 | 69 | 234 | 2.0 | 7.0 | 0.00 | 0.00 | 0.00 | 16 | 1011.2 |
| 20260903165005 | 69 | 235 | 1.0 | 7.0 | 0.00 | 0.00 | 0.00 | 16 | 1011.2 |
| 20260903164904 | 69 | 0 | 0.0 | 7.0 | 0.00 | 0.00 | 0.00 | 16 | 1011.3 |
| 20260903164805 | 69 | 245 | 1.0 | 7.0 | 0.00 | 0.00 | 0.00 | 16 | 1011.2 |
| 20260903164704 | 69 | 257 | 1.0 | 7.0 | 0.00 | 0.00 | 0.00 | 16 | 1011.3 |
| 20260903164604 | 69 | 261 | 1.0 | 8.0 | 0.00 | 0.00 | 0.00 | 16 | 1011.3 |
| 20260903164504 | 69 | 261 | 1.0 | 8.0 | 0.00 | 0.00 | 0.00 | 16 | 1011.4 |
| 20260903164404 | 69 | 257 | 4.0 | 8.0 | 0.00 | 0.00 | 0.00 | 16 | 1011.3 |
| 20260903164304 | 69 | 260 | 4.0 | 8.0 | 0.00 | 0.00 | 0.00 | 16 | 1011.3 |
| 20260903164204 | 69 | 0 | 0.0 | 8.0 | 0.00 | 0.00 | 0.00 | 16 | 1011.3 |
| 20260903164104 | 69 | 0 | 0.0 | 8.0 | 0.00 | 0.00 | 0.00 | 16 | 1011.3 |
| 20260903164005 | 69 | 0 | 0.0 | 8.0 | 0.00 | 0.00 | 0.00 | 15 | 1011.3 |
| 20260903163904 | 69 | 266 | 4.0 | 8.0 | 0.00 | 0.00 | 0.00 | 15 | 1011.3 |
| 20260903163804 | 69 | 264 | 4.0 | 8.0 | 0.00 | 0.00 | 0.00 | 15 | 1011.4 |
| 20260903163705 | 69 | 261 | 3.0 | 8.0 | 0.00 | 0.00 | 0.00 | 16 | 1011.5 |
| 20260903163604 | 69 | 261 | 2.0 | 8.0 | 0.00 | 0.00 | 0.00 | 15 | 1011.4 |
| 20260903163504 | 69 | 261 | 2.0 | 8.0 | 0.00 | 0.00 | 0.00 | 15 | 1011.4 |
| 20260903163404 | 69 | 262 | 4.0 | 8.0 | 0.00 | 0.00 | 0.00 | 15 | 1011.4 |
| 20260903163304 | 69 | 263 | 4.0 | 8.0 | 0.00 | 0.00 | 0.00 | 15 | 1011.4 |
| 20260903163204 | 70 | 263 | 3.0 | 8.0 | 0.00 | 0.00 | 0.00 | 15 | 1011.5 |
| 20260903163104 | 69 | 263 | 6.0 | 8.0 | 0.00 | 0.00 | 0.00 | 15 | 1011.4 |
| 20260903162604 | 69 | 277 | 3.0 | 8.0 | 0.00 | 0.00 | 0.00 | 16 | 1011.4 |
| 20260903162005 | 69 | 284 | 2.0 | 8.0 | 0.00 | 0.00 | 0.00 | 17 | 1011.3 |
| 20260903161904 | 69 | 281 | 4.0 | 9.0 | 0.00 | 0.00 | 0.00 | 17 | 1011.5 |
| 20260903161805 | 69 | 279 | 2.0 | 10.0 | 0.00 | 0.00 | 0.00 | 17 | 1011.5 |
| 20260903161704 | 69 | 277 | 2.0 | 10.0 | 0.00 | 0.00 | 0.00 | 16 | 1011.5 |
| 20260903161604 | 69 | 277 | 4.0 | 10.0 | 0.00 | 0.00 | 0.00 | 16 | 1011.5 |
| 20260903161504 | 69 | 277 | 4.0 | 10.0 | 0.00 | 0.00 | 0.00 | 16 | 1011.5 |
| 20260903161404 | 69 | 277 | 4.0 | 10.0 | 0.00 | 0.00 | 0.00 | 16 | 1011.5 |
| 20260903161304 | 69 | 271 | 4.0 | 10.0 | 0.00 | 0.00 | 0.00 | 16 | 1011.5 |
| 20260903161204 | 69 | 270 | 3.0 | 10.0 | 0.00 | 0.00 | 0.00 | 17 | 1011.6 |
| 20260903161004 | 69 | 270 | 4.0 | 10.0 | 0.00 | 0.00 | 0.00 | 17 | 1011.6 |
| 20260903160904 | 69 | 269 | 6.0 | 10.0 | 0.00 | 0.00 | 0.00 | 17 | 1011.6 |
| 20260903160804 | 69 | 269 | 5.0 | 8.0 | 0.00 | 0.00 | 0.00 | 17 | 1011.6 |
| 20260903160705 | 69 | 268 | 5.0 | 8.0 | 0.00 | 0.00 | 0.00 | 17 | 1011.7 |
| 20260903160604 | 69 | 273 | 3.0 | 5.0 | 0.00 | 0.00 | 0.00 | 17 | 1011.6 |
| 20260903160504 | 69 | 275 | 2.0 | 5.0 | 0.00 | 0.00 | 0.00 | 18 | 1011.6 |
| 20260903160405 | 69 | 282 | 1.0 | 5.0 | 0.00 | 0.00 | 0.00 | 18 | 1011.6 |
| 20260903160304 | 69 | 0 | 0.0 | 5.0 | 0.00 | 0.00 | 0.00 | 17 | 1011.7 |
| 20260903160204 | 69 | 289 | 2.0 | 5.0 | 0.00 | 0.00 | 0.00 | 17 | 1011.8 |
| 20260903160104 | 69 | 293 | 2.0 | 5.0 | 0.00 | 0.00 | 0.00 | 18 | 1011.7 |
| 20260903160004 | 69 | 0 | 0.0 | 5.0 | 0.00 | 0.00 | 0.00 | 18 | 1011.7 |
| 20260903155904 | 69 | 305 | 2.0 | 5.0 | 0.00 | 0.00 | 0.00 | 18 | 1011.7 |
| 20260903155804 | 69 | 305 | 2.0 | 5.0 | 0.00 | 0.00 | 0.00 | 18 | 1011.8 |
| 20260903155704 | 69 | 303 | 3.0 | 5.0 | 0.00 | 0.00 | 0.00 | 18 | 1011.8 |
| 20260903155604 | 69 | 303 | 3.0 | 5.0 | 0.00 | 0.00 | 0.00 | 18 | 1011.8 |
| 20260903155504 | 69 | 311 | 2.0 | 5.0 | 0.00 | 0.00 | 0.00 | 18 | 1011.8 |
| 20260903155404 | 69 | 309 | 2.0 | 5.0 | 0.00 | 0.00 | 0.00 | 18 | 1011.8 |
| 20260903155306 | 69 | 303 | 4.0 | 5.0 | 0.00 | 0.00 | 0.00 | 18 | 1011.8 |
| 20260903155205 | 69 | 303 | 3.0 | 5.0 | 0.00 | 0.00 | 0.00 | 18 | 1011.7 |
| 20260903155104 | 69 | 299 | 2.0 | 5.0 | 0.00 | 0.00 | 0.00 | 18 | 1011.8 |
| 20260903155004 | 69 | 296 | 2.0 | 5.0 | 0.00 | 0.00 | 0.00 | 18 | 1011.7 |
| 20260903154905 | 69 | 294 | 3.0 | 5.0 | 0.00 | 0.00 | 0.00 | 17 | 1011.8 |
| 20260903154804 | 69 | 303 | 2.0 | 4.0 | 0.00 | 0.00 | 0.00 | 16 | 1011.8 |
| 20260903154704 | 69 | 309 | 2.0 | 4.0 | 0.00 | 0.00 | 0.00 | 16 | 1011.8 |
| 20260903154605 | 69 | 0 | 0.0 | 4.0 | 0.00 | 0.00 | 0.00 | 16 | 1011.8 |
| 20260903154504 | 69 | 0 | 0.0 | 4.0 | 0.00 | 0.00 | 0.00 | 16 | 1011.8 |
| 20260903154404 | 69 | 228 | 1.0 | 2.0 | 0.00 | 0.00 | 0.00 | 15 | 1011.9 |
| 20260903154304 | 69 | 228 | 1.0 | 2.0 | 0.00 | 0.00 | 0.00 | 15 | 1012.0 |
| 20260903154204 | 69 | 0 | 0.0 | 2.0 | 0.00 | 0.00 | 0.00 | 16 | 1011.8 |
| 20260903154104 | 69 | 0 | 0.0 | 2.0 | 0.00 | 0.00 | 0.00 | 15 | 1011.8 |
| 20260903154004 | 69 | 211 | 1.0 | 2.0 | 0.00 | 0.00 | 0.00 | 15 | 1011.8 |
| 20260903153904 | 69 | 0 | 0.0 | 3.0 | 0.00 | 0.00 | 0.00 | 15 | 1011.8 |
| 20260903153804 | 69 | 0 | 0.0 | 3.0 | 0.00 | 0.00 | 0.00 | 15 | 1011.9 |
| 20260903153604 | 70 | 149 | 2.0 | 3.0 | 0.00 | 0.00 | 0.00 | 15 | 1011.9 |
| 20260903153504 | 70 | 0 | 0.0 | 3.0 | 0.00 | 0.00 | 0.00 | 16 | 1011.9 |
| 20260903153404 | 70 | 0 | 0.0 | 3.0 | 0.00 | 0.00 | 0.00 | 16 | 1011.9 |
| 20260903153304 | 70 | 0 | 0.0 | 3.0 | 0.00 | 0.00 | 0.00 | 16 | 1011.9 |
| 20260903153204 | 70 | 0 | 0.0 | 4.0 | 0.00 | 0.00 | 0.00 | 16 | 1011.9 |
| 20260903153104 | 70 | 136 | 1.0 | 4.0 | 0.00 | 0.00 | 0.00 | 17 | 1011.9 |
| 20260903153004 | 70 | 136 | 1.0 | 4.0 | 0.00 | 0.00 | 0.00 | 17 | 1011.9 |
| 20260903152904 | 70 | 135 | 1.0 | 4.0 | 0.00 | 0.00 | 0.00 | 17 | 1011.9 |
| 20260903152804 | 70 | 132 | 2.0 | 4.0 | 0.00 | 0.00 | 0.00 | 17 | 1011.9 |
| 20260903152704 | 70 | 0 | 0.0 | 4.0 | 0.00 | 0.00 | 0.00 | 17 | 1012.0 |
| 20260903152504 | 70 | 0 | 0.0 | 4.0 | 0.00 | 0.00 | 0.00 | 17 | 1012.0 |
| 20260903152404 | 69 | 122 | 1.0 | 4.0 | 0.00 | 0.00 | 0.00 | 18 | 1011.9 |
| 20260903152306 | 69 | 119 | 2.0 | 4.0 | 0.00 | 0.00 | 0.00 | 18 | 1012.0 |
| 20260903152204 | 69 | 113 | 1.0 | 4.0 | 0.00 | 0.00 | 0.00 | 19 | 1011.9 |
| 20260903152104 | 69 | 118 | 1.0 | 4.0 | 0.00 | 0.00 | 0.00 | 18 | 1011.9 |
| 20260903152004 | 69 | 114 | 2.0 | 4.0 | 0.00 | 0.00 | 0.00 | 18 | 1011.8 |
| 20260903151904 | 69 | 0 | 0.0 | 4.0 | 0.00 | 0.00 | 0.00 | 19 | 1012.0 |
| 20260903151804 | 68 | 117 | 2.0 | 4.0 | 0.00 | 0.00 | 0.00 | 18 | 1012.0 |
| 20260903151704 | 68 | 120 | 2.0 | 4.0 | 0.00 | 0.00 | 0.00 | 18 | 1012.0 |
| 20260903151604 | 68 | 0 | 0.0 | 4.0 | 0.00 | 0.00 | 0.00 | 19 | 1012.0 |
| 20260903151504 | 68 | 0 | 0.0 | 4.0 | 0.00 | 0.00 | 0.00 | 19 | 1011.9 |
| 20260903151404 | 68 | 109 | 1.0 | 4.0 | 0.00 | 0.00 | 0.00 | 19 | 1012.0 |
| 20260903151304 | 67 | 112 | 2.0 | 4.0 | 0.00 | 0.00 | 0.00 | 19 | 1011.9 |
| 20260903151204 | 67 | 118 | 2.0 | 4.0 | 0.00 | 0.00 | 0.00 | 19 | 1012.0 |
| 20260903151104 | 67 | 119 | 2.0 | 4.0 | 0.00 | 0.00 | 0.00 | 20 | 1011.9 |
| 20260903151004 | 67 | 125 | 2.0 | 4.0 | 0.00 | 0.00 | 0.00 | 20 | 1012.1 |
| 20260903150904 | 67 | 124 | 2.0 | 4.0 | 0.00 | 0.00 | 0.00 | 20 | 1012.0 |
| 20260903150804 | 67 | 119 | 1.0 | 4.0 | 0.00 | 0.00 | 0.00 | 21 | 1012.0 |
| 20260903150704 | 66 | 118 | 2.0 | 4.0 | 0.00 | 0.00 | 0.00 | 20 | 1012.0 |
| 20260903150604 | 66 | 124 | 2.0 | 4.0 | 0.00 | 0.00 | 0.00 | 20 | 1011.9 |
| 20260903150504 | 66 | 131 | 1.0 | 4.0 | 0.00 | 0.00 | 0.00 | 20 | 1012.0 |
| 20260903150404 | 66 | 0 | 0.0 | 3.0 | 0.00 | 0.00 | 0.00 | 21 | 1012.1 |
| 20260903150304 | 66 | 134 | 1.0 | 3.0 | 0.00 | 0.00 | 0.00 | 21 | 1012.1 |
| 20260903150204 | 66 | 136 | 2.0 | 3.0 | 0.00 | 0.00 | 0.00 | 21 | 1012.1 |
| 20260903150104 | 66 | 140 | 2.0 | 3.0 | 0.00 | 0.00 | 0.00 | 22 | 1012.0 |
| 20260903150004 | 65 | 145 | 2.0 | 3.0 | 0.00 | 0.00 | 0.00 | 22 | 1012.1 |
| 20260903145904 | 65 | 160 | 1.0 | 3.0 | 0.00 | 0.00 | 0.00 | 22 | 1012.0 |
| 20260903145804 | 65 | 0 | 0.0 | 3.0 | 0.00 | 0.00 | 0.00 | 22 | 1012.1 |
| 20260903145704 | 65 | 0 | 0.0 | 3.0 | 0.00 | 0.00 | 0.00 | 22 | 1012.0 |
| 20260903145604 | 65 | 0 | 0.0 | 3.0 | 0.00 | 0.00 | 0.00 | 22 | 1012.1 |
| 20260903145504 | 64 | 155 | 1.0 | 3.0 | 0.00 | 0.00 | 0.00 | 23 | 1012.1 |
| 20260903145404 | 64 | 143 | 2.0 | 3.0 | 0.00 | 0.00 | 0.00 | 23 | 1012.2 |
| 20260903145306 | 64 | 137 | 2.0 | 3.0 | 0.00 | 0.00 | 0.00 | 23 | 1012.1 |
| 20260903145205 | 64 | 0 | 0.0 | 3.0 | 0.00 | 0.00 | 0.00 | 23 | 1012.2 |
| 20260903145104 | 63 | 0 | 0.0 | 3.0 | 0.00 | 0.00 | 0.00 | 24 | 1012.1 |
| 20260903145004 | 63 | 0 | 0.0 | 4.0 | 0.00 | 0.00 | 0.00 | 24 | 1012.2 |
| 20260903144904 | 63 | 195 | 1.0 | 4.0 | 0.00 | 0.00 | 0.00 | 24 | 1012.2 |
| 20260903144805 | 63 | 216 | 1.0 | 4.0 | 0.00 | 0.00 | 0.00 | 25 | 1012.1 |
| 20260903144704 | 62 | 232 | 2.0 | 4.0 | 0.00 | 0.00 | 0.00 | 25 | 1012.1 |
| 20260903144604 | 62 | 240 | 2.0 | 4.0 | 0.00 | 0.00 | 0.00 | 24 | 1012.1 |
| 20260903144505 | 62 | 246 | 2.0 | 4.0 | 0.00 | 0.00 | 0.00 | 24 | 1012.1 |
| 20260903144304 | 62 | 250 | 1.0 | 4.0 | 0.00 | 0.00 | 0.00 | 25 | 1012.1 |
| 20260903144204 | 62 | 0 | 0.0 | 4.0 | 0.00 | 0.00 | 0.00 | 25 | 1012.0 |
| 20260903144104 | 61 | 241 | 1.0 | 4.0 | 0.00 | 0.00 | 0.00 | 25 | 1012.0 |
| 20260903144004 | 61 | 216 | 2.0 | 4.0 | 0.00 | 0.00 | 0.00 | 26 | 1012.1 |
| 20260903143904 | 61 | 195 | 2.0 | 4.0 | 0.00 | 0.00 | 0.00 | 27 | 1012.1 |
| 20260903143804 | 61 | 174 | 2.0 | 3.0 | 0.00 | 0.00 | 0.00 | 27 | 1012.0 |
| 20260903143704 | 61 | 0 | 0.0 | 2.0 | 0.00 | 0.00 | 0.00 | 27 | 1012.1 |
| 20260903143604 | 61 | 0 | 0.0 | 2.0 | 0.00 | 0.00 | 0.00 | 29 | 1012.1 |
| 20260903143504 | 60 | 0 | 0.0 | 2.0 | 0.00 | 0.00 | 0.00 | 29 | 1012.0 |
| 20260903143404 | 60 | 0 | 0.0 | 3.0 | 0.00 | 0.00 | 0.00 | 29 | 1012.0 |
| 20260903143304 | 60 | 124 | 1.0 | 3.0 | 0.00 | 0.00 | 0.00 | 29 | 1012.0 |
| 20260903143204 | 60 | 0 | 0.0 | 4.0 | 0.00 | 0.00 | 0.00 | 29 | 1012.0 |
| 20260903143105 | 59 | 0 | 0.0 | 4.0 | 0.00 | 0.00 | 0.00 | 29 | 1012.0 |
| 20260903143005 | 59 | 0 | 0.0 | 6.0 | 0.00 | 0.00 | 0.00 | 29 | 1012.0 |
| 20260903142904 | 59 | 0 | 0.0 | 6.0 | 0.00 | 0.00 | 0.00 | 30 | 1012.0 |
| 20260903142804 | 59 | 87 | 1.0 | 6.0 | 0.00 | 0.00 | 0.00 | 30 | 1012.0 |
| 20260903142704 | 58 | 0 | 0.0 | 6.0 | 0.00 | 0.00 | 0.00 | 30 | 1012.0 |
| 20260903142604 | 58 | 90 | 1.0 | 6.0 | 0.00 | 0.00 | 0.00 | 31 | 1011.9 |
| 20260903142504 | 58 | 0 | 0.0 | 6.0 | 0.00 | 0.00 | 0.00 | 31 | 1012.0 |
| 20260903142404 | 57 | 92 | 1.0 | 6.0 | 0.00 | 0.00 | 0.00 | 32 | 1012.0 |
| 20260903142306 | 57 | 99 | 1.0 | 6.0 | 0.00 | 0.00 | 0.00 | 33 | 1012.0 |
| 20260903142204 | 57 | 101 | 2.0 | 6.0 | 0.00 | 0.00 | 0.00 | 33 | 1011.9 |
| 20260903142104 | 56 | 106 | 2.0 | 6.0 | 0.00 | 0.00 | 0.00 | 34 | 1011.9 |
| 20260903141505 | 54 | 76 | 1.0 | 5.0 | 0.00 | 0.00 | 0.00 | 37 | 1011.8 |
| 20260903141404 | 54 | 67 | 1.0 | 5.0 | 0.00 | 0.00 | 0.00 | 36 | 1011.8 |
| 20260903141304 | 54 | 69 | 1.0 | 5.0 | 0.00 | 0.00 | 0.00 | 36 | 1011.8 |
| 20260903141204 | 54 | 69 | 2.0 | 5.0 | 0.00 | 0.00 | 0.00 | 36 | 1011.8 |
| 20260903141104 | 53 | 73 | 2.0 | 5.0 | 0.00 | 0.00 | 0.00 | 35 | 1011.8 |
| 20260903141004 | 53 | 74 | 2.0 | 5.0 | 0.00 | 0.00 | 0.00 | 35 | 1011.8 |
| 20260903140804 | 53 | 85 | 2.0 | 3.0 | 0.00 | 0.00 | 0.00 | 35 | 1011.8 |
| 20260903140704 | 53 | 90 | 1.0 | 3.0 | 0.00 | 0.00 | 0.00 | 35 | 1011.8 |
| 20260903140603 | 52 | 90 | 1.0 | 3.0 | 0.00 | 0.00 | 0.00 | 35 | 1011.9 |
| 20260903140504 | 52 | 90 | 2.0 | 3.0 | 0.00 | 0.00 | 0.00 | 35 | 1011.8 |
| 20260903140404 | 52 | 97 | 2.0 | 3.0 | 0.00 | 0.00 | 0.00 | 36 | 1011.8 |
| 20260903140304 | 52 | 102 | 1.0 | 3.0 | 0.00 | 0.00 | 0.00 | 36 | 1011.8 |
| 20260903140204 | 51 | 0 | 0.0 | 4.0 | 0.00 | 0.00 | 0.00 | 37 | 1011.9 |
| 20260903140104 | 51 | 104 | 2.0 | 4.0 | 0.00 | 0.00 | 0.00 | 37 | 1011.9 |
| 20260903140005 | 51 | 103 | 2.0 | 4.0 | 0.00 | 0.00 | 0.00 | 37 | 1011.8 |
| 20260903135904 | 51 | 102 | 2.0 | 4.0 | 0.00 | 0.00 | 0.00 | 38 | 1011.8 |
| 20260903135804 | 51 | 97 | 1.0 | 4.0 | 0.00 | 0.00 | 0.00 | 38 | 1011.8 |
| 20260903135704 | 51 | 0 | 0.0 | 4.0 | 0.00 | 0.00 | 0.00 | 38 | 1011.8 |
| 20260903135604 | 51 | 0 | 0.0 | 4.0 | 0.00 | 0.00 | 0.00 | 38 | 1011.9 |
| 20260903135504 | 50 | 0 | 0.0 | 4.0 | 0.00 | 0.00 | 0.00 | 37 | 1011.8 |
| 20260903135404 | 50 | 96 | 1.0 | 4.0 | 0.00 | 0.00 | 0.00 | 37 | 1011.8 |
| 20260903135306 | 50 | 93 | 2.0 | 4.0 | 0.00 | 0.00 | 0.00 | 37 | 1011.9 |
| 20260903135204 | 50 | 92 | 2.0 | 4.0 | 0.00 | 0.00 | 0.00 | 37 | 1011.8 |
| 20260903135104 | 50 | 95 | 2.0 | 4.0 | 0.00 | 0.00 | 0.00 | 37 | 1011.8 |
| 20260903135004 | 50 | 96 | 2.0 | 3.0 | 0.00 | 0.00 | 0.00 | 37 | 1011.8 |
| 20260903134904 | 50 | 96 | 2.0 | 3.0 | 0.00 | 0.00 | 0.00 | 37 | 1011.7 |
| 20260903134803 | 50 | 96 | 2.0 | 3.0 | 0.00 | 0.00 | 0.00 | 37 | 1011.7 |
| 20260903134704 | 50 | 96 | 2.0 | 4.0 | 0.00 | 0.00 | 0.00 | 37 | 1011.9 |
| 20260903134604 | 50 | 93 | 2.0 | 4.0 | 0.00 | 0.00 | 0.00 | 37 | 1011.8 |
| 20260903134504 | 50 | 94 | 2.0 | 4.0 | 0.00 | 0.00 | 0.00 | 37 | 1011.8 |
| 20260903134404 | 50 | 97 | 2.0 | 4.0 | 0.00 | 0.00 | 0.00 | 37 | 1011.8 |
| 20260903134304 | 50 | 98 | 2.0 | 4.0 | 0.00 | 0.00 | 0.00 | 38 | 1011.7 |
| 20260903134204 | 50 | 99 | 2.0 | 4.0 | 0.00 | 0.00 | 0.00 | 38 | 1011.7 |
| 20260903134105 | 50 | 99 | 2.0 | 4.0 | 0.00 | 0.00 | 0.00 | 38 | 1011.8 |
| 20260903133504 | 49 | 103 | 1.0 | 7.0 | 0.00 | 0.00 | 0.00 | 38 | 1011.8 |
| 20260903133004 | 49 | 88 | 1.0 | 7.0 | 0.00 | 0.00 | 0.00 | 38 | 1011.7 |
| 20260903132904 | 49 | 84 | 2.0 | 7.0 | 0.00 | 0.00 | 0.00 | 38 | 1011.7 |
| 20260903132804 | 49 | 83 | 3.0 | 7.0 | 0.00 | 0.00 | 0.00 | 38 | 1011.7 |
| 20260903132704 | 49 | 79 | 4.0 | 7.0 | 0.00 | 0.00 | 0.00 | 38 | 1011.8 |
| 20260903132604 | 49 | 78 | 5.0 | 7.0 | 0.00 | 0.00 | 0.00 | 38 | 1011.6 |
| 20260903132505 | 49 | 78 | 3.0 | 7.0 | 0.00 | 0.00 | 0.00 | 38 | 1011.7 |
| 20260903132104 | 49 | 58 | 3.0 | 4.0 | 0.00 | 0.00 | 0.00 | 37 | 1011.7 |
| 20260903132004 | 49 | 57 | 3.0 | 4.0 | 0.00 | 0.00 | 0.00 | 37 | 1011.7 |
| 20260903131904 | 49 | 64 | 2.0 | 4.0 | 0.00 | 0.00 | 0.00 | 36 | 1011.7 |
| 20260903131804 | 49 | 69 | 2.0 | 4.0 | 0.00 | 0.00 | 0.00 | 36 | 1011.6 |
| 20260903131703 | 50 | 71 | 2.0 | 4.0 | 0.00 | 0.00 | 0.00 | 36 | 1011.7 |
| 20260903131604 | 50 | 74 | 2.0 | 4.0 | 0.00 | 0.00 | 0.00 | 36 | 1011.7 |
| 20260903131504 | 50 | 77 | 2.0 | 4.0 | 0.00 | 0.00 | 0.00 | 36 | 1011.6 |
| 20260903131404 | 50 | 81 | 1.0 | 4.0 | 0.00 | 0.00 | 0.00 | 36 | 1011.7 |
| 20260903131303 | 50 | 81 | 2.0 | 4.0 | 0.00 | 0.00 | 0.00 | 36 | 1011.7 |
| 20260903131204 | 50 | 78 | 2.0 | 4.0 | 0.00 | 0.00 | 0.00 | 36 | 1011.7 |
| 20260903131104 | 50 | 80 | 2.0 | 4.0 | 0.00 | 0.00 | 0.00 | 36 | 1011.7 |
| 20260903131004 | 50 | 79 | 3.0 | 4.0 | 0.00 | 0.00 | 0.00 | 36 | 1011.8 |
| 20260903130903 | 50 | 78 | 2.0 | 4.0 | 0.00 | 0.00 | 0.00 | 36 | 1011.8 |
| 20260903130804 | 50 | 78 | 2.0 | 4.0 | 0.00 | 0.00 | 0.00 | 36 | 1011.8 |
| 20260903130704 | 50 | 79 | 1.0 | 4.0 | 0.00 | 0.00 | 0.00 | 36 | 1011.8 |
| 20260903130604 | 50 | 79 | 2.0 | 4.0 | 0.00 | 0.00 | 0.00 | 36 | 1011.8 |
| 20260903130503 | 50 | 79 | 2.0 | 4.0 | 0.00 | 0.00 | 0.00 | 36 | 1011.8 |
| 20260903130404 | 50 | 79 | 1.0 | 4.0 | 0.00 | 0.00 | 0.00 | 36 | 1011.8 |
| 20260903130304 | 50 | 86 | 2.0 | 4.0 | 0.00 | 0.00 | 0.00 | 37 | 1011.8 |
| 20260903130204 | 50 | 90 | 1.0 | 4.0 | 0.00 | 0.00 | 0.00 | 37 | 1011.7 |
| 20260903130104 | 50 | 90 | 1.0 | 4.0 | 0.00 | 0.00 | 0.00 | 37 | 1011.8 |
| 20260903130004 | 50 | 89 | 1.0 | 4.0 | 0.00 | 0.00 | 0.00 | 37 | 1011.7 |
| 20260903125904 | 50 | 88 | 2.0 | 4.0 | 0.00 | 0.00 | 0.00 | 37 | 1011.7 |
| 20260903125804 | 50 | 88 | 2.0 | 4.0 | 0.00 | 0.00 | 0.00 | 38 | 1011.7 |
| 20260903125704 | 50 | 88 | 2.0 | 4.0 | 0.00 | 0.00 | 0.00 | 38 | 1011.7 |
| 20260903125604 | 50 | 89 | 2.0 | 4.0 | 0.00 | 0.00 | 0.00 | 38 | 1011.7 |
| 20260903125504 | 50 | 90 | 2.0 | 4.0 | 0.00 | 0.00 | 0.00 | 38 | 1011.7 |
| 20260903125004 | 51 | 92 | 1.0 | 4.0 | 0.00 | 0.00 | 0.00 | 37 | 1011.8 |
| 20260903124504 | 51 | 84 | 2.0 | 4.0 | 0.00 | 0.00 | 0.00 | 36 | 1011.8 |
| 20260903124404 | 51 | 87 | 2.0 | 4.0 | 0.00 | 0.00 | 0.00 | 36 | 1011.7 |
| 20260903124304 | 51 | 0 | 0.0 | 4.0 | 0.00 | 0.00 | 0.00 | 36 | 1011.7 |
| 20260903124204 | 51 | 0 | 0.0 | 4.0 | 0.00 | 0.00 | 0.00 | 36 | 1011.8 |
| 20260903124104 | 51 | 86 | 1.0 | 4.0 | 0.00 | 0.00 | 0.00 | 36 | 1011.8 |
| 20260903124004 | 51 | 90 | 2.0 | 4.0 | 0.00 | 0.00 | 0.00 | 36 | 1011.6 |
| 20260903123904 | 51 | 0 | 0.0 | 4.0 | 0.00 | 0.00 | 0.00 | 36 | 1011.7 |
| 20260903123804 | 51 | 0 | 0.0 | 4.0 | 0.00 | 0.00 | 0.00 | 36 | 1011.8 |
| 20260903123704 | 51 | 0 | 0.0 | 4.0 | 0.00 | 0.00 | 0.00 | 36 | 1011.8 |
| 20260903123603 | 52 | 69 | 1.0 | 4.0 | 0.00 | 0.00 | 0.00 | 36 | 1011.6 |
| 20260903123504 | 52 | 0 | 0.0 | 4.0 | 0.00 | 0.00 | 0.00 | 36 | 1011.7 |
| 20260903123404 | 52 | 66 | 1.0 | 4.0 | 0.00 | 0.00 | 0.00 | 36 | 1011.7 |
| 20260903122904 | 51 | 33 | 2.0 | 4.0 | 0.00 | 0.00 | 0.00 | 35 | 1011.6 |
| 20260903122804 | 52 | 35 | 2.0 | 4.0 | 0.00 | 0.00 | 0.00 | 35 | 1011.7 |
| 20260903122704 | 52 | 34 | 2.0 | 4.0 | 0.00 | 0.00 | 0.00 | 35 | 1011.8 |
| 20260903122604 | 52 | 31 | 2.0 | 4.0 | 0.00 | 0.00 | 0.00 | 34 | 1011.7 |
| 20260903122504 | 52 | 29 | 2.0 | 3.0 | 0.00 | 0.00 | 0.00 | 33 | 1011.8 |
| 20260903122404 | 52 | 16 | 2.0 | 3.0 | 0.00 | 0.00 | 0.00 | 33 | 1011.8 |
| 20260903122306 | 52 | 10 | 2.0 | 3.0 | 0.00 | 0.00 | 0.00 | 33 | 1011.8 |
| 20260903122204 | 53 | 3 | 2.0 | 3.0 | 0.00 | 0.00 | 0.00 | 33 | 1011.9 |
| 20260903122104 | 53 | 7 | 1.0 | 3.0 | 0.00 | 0.00 | 0.00 | 32 | 1011.8 |
| 20260903122004 | 53 | 19 | 1.0 | 3.0 | 0.00 | 0.00 | 0.00 | 32 | 1011.9 |
| 20260903121903 | 53 | 0 | 0.0 | 3.0 | 0.00 | 0.00 | 0.00 | 32 | 1011.8 |
| 20260903121804 | 53 | 0 | 0.0 | 3.0 | 0.00 | 0.00 | 0.00 | 31 | 1011.8 |
| 20260903121704 | 53 | 0 | 0.0 | 3.0 | 0.00 | 0.00 | 0.00 | 31 | 1011.9 |
| 20260903121604 | 53 | 0 | 0.0 | 3.0 | 0.00 | 0.00 | 0.00 | 31 | 1011.7 |
| 20260903121504 | 54 | 67 | 2.0 | 3.0 | 0.00 | 0.00 | 0.00 | 31 | 1011.8 |
| 20260903121404 | 54 | 0 | 0.0 | 3.0 | 0.00 | 0.00 | 0.00 | 30 | 1011.8 |
| 20260903121304 | 54 | 0 | 0.0 | 3.0 | 0.00 | 0.00 | 0.00 | 31 | 1011.9 |
| 20260903121204 | 54 | 0 | 0.0 | 3.0 | 0.00 | 0.00 | 0.00 | 30 | 1011.8 |
| 20260903121104 | 54 | 0 | 0.0 | 3.0 | 0.00 | 0.00 | 0.00 | 30 | 1011.9 |
| 20260903121003 | 54 | 87 | 2.0 | 3.0 | 0.00 | 0.00 | 0.00 | 30 | 1011.9 |
| 20260903120904 | 54 | 90 | 2.0 | 3.0 | 0.00 | 0.00 | 0.00 | 30 | 1011.9 |
| 20260903120804 | 54 | 90 | 2.0 | 3.0 | 0.00 | 0.00 | 0.00 | 30 | 1011.9 |
| 20260903120704 | 54 | 89 | 1.0 | 3.0 | 0.00 | 0.00 | 0.00 | 29 | 1011.9 |
| 20260903120603 | 54 | 102 | 1.0 | 8.0 | 0.00 | 0.00 | 0.00 | 29 | 1011.9 |
| 20260903120504 | 54 | 101 | 1.0 | 8.0 | 0.00 | 0.00 | 0.00 | 29 | 1012.0 |
| 20260903120404 | 54 | 102 | 1.0 | 8.0 | 0.00 | 0.00 | 0.00 | 29 | 1012.0 |
| 20260903120304 | 54 | 102 | 1.0 | 8.0 | 0.00 | 0.00 | 0.00 | 29 | 1012.0 |
| 20260903120204 | 54 | 105 | 1.0 | 8.0 | 0.00 | 0.00 | 0.00 | 29 | 1011.9 |
| 20260903120104 | 54 | 111 | 1.0 | 8.0 | 0.00 | 0.00 | 0.00 | 29 | 1011.9 |
| 20260903120004 | 54 | 0 | 0.0 | 8.0 | 0.00 | 0.00 | 0.00 | 29 | 1011.9 |
| 20260903115903 | 54 | 107 | 1.0 | 8.0 | 0.00 | 0.00 | 0.00 | 29 | 1011.9 |
| 20260903115804 | 54 | 107 | 1.0 | 8.0 | 0.00 | 0.00 | 0.00 | 29 | 1012.0 |
| 20260903115704 | 54 | 107 | 2.0 | 8.0 | 0.00 | 0.00 | 0.00 | 29 | 1011.9 |
| 20260903114904 | 54 | 111 | 2.0 | 6.0 | 0.00 | 0.00 | 0.00 | 28 | 1011.8 |
| 20260903114804 | 54 | 113 | 2.0 | 6.0 | 0.00 | 0.00 | 0.00 | 27 | 1011.8 |
| 20260903114704 | 54 | 117 | 2.0 | 6.0 | 0.00 | 0.00 | 0.00 | 27 | 1011.8 |
| 20260903114604 | 54 | 122 | 2.0 | 6.0 | 0.00 | 0.00 | 0.00 | 27 | 1011.9 |
| 20260903114504 | 54 | 120 | 1.0 | 6.0 | 0.00 | 0.00 | 0.00 | 27 | 1011.9 |
| 20260903114005 | 54 | 118 | 2.0 | 5.0 | 0.00 | 0.00 | 0.00 | 27 | 1011.8 |
| 20260903113904 | 54 | 115 | 2.0 | 5.0 | 0.00 | 0.00 | 0.00 | 26 | 1011.8 |
| 20260903113804 | 54 | 111 | 2.0 | 5.0 | 0.00 | 0.00 | 0.00 | 26 | 1011.9 |
| 20260903113703 | 54 | 109 | 2.0 | 5.0 | 0.00 | 0.00 | 0.00 | 26 | 1011.9 |
| 20260903113604 | 55 | 107 | 2.0 | 5.0 | 0.00 | 0.00 | 0.00 | 26 | 1011.8 |
| 20260903113504 | 55 | 107 | 2.0 | 5.0 | 0.00 | 0.00 | 0.00 | 25 | 1011.8 |
| 20260903113404 | 55 | 106 | 3.0 | 5.0 | 0.00 | 0.00 | 0.00 | 25 | 1011.8 |
| 20260903113303 | 55 | 108 | 2.0 | 4.0 | 0.00 | 0.00 | 0.00 | 25 | 1011.8 |
| 20260903113204 | 55 | 104 | 2.0 | 4.0 | 0.00 | 0.00 | 0.00 | 25 | 1011.9 |
| 20260903113104 | 55 | 95 | 2.0 | 4.0 | 0.00 | 0.00 | 0.00 | 25 | 1011.8 |
| 20260903113004 | 55 | 100 | 1.0 | 4.0 | 0.00 | 0.00 | 0.00 | 25 | 1011.8 |
| 20260903112904 | 55 | 105 | 2.0 | 4.0 | 0.00 | 0.00 | 0.00 | 25 | 1011.8 |
| 20260903112803 | 55 | 107 | 2.0 | 5.0 | 0.00 | 0.00 | 0.00 | 25 | 1011.8 |
| 20260903112704 | 55 | 105 | 2.0 | 8.0 | 0.00 | 0.00 | 0.00 | 24 | 1011.9 |
| 20260903112604 | 55 | 101 | 2.0 | 8.0 | 0.00 | 0.00 | 0.00 | 24 | 1011.9 |
| 20260903112403 | 56 | 101 | 2.0 | 8.0 | 0.00 | 0.00 | 0.00 | 24 | 1011.8 |
| 20260903112305 | 56 | 98 | 2.0 | 8.0 | 0.00 | 0.00 | 0.00 | 24 | 1011.9 |
| 20260903112204 | 56 | 97 | 2.0 | 8.0 | 0.00 | 0.00 | 0.00 | 24 | 1011.9 |
| 20260903112104 | 56 | 97 | 2.0 | 8.0 | 0.00 | 0.00 | 0.00 | 23 | 1011.9 |
| 20260903112004 | 56 | 96 | 2.0 | 8.0 | 0.00 | 0.00 | 0.00 | 23 | 1011.9 |
| 20260903111904 | 56 | 95 | 3.0 | 8.0 | 0.00 | 0.00 | 0.00 | 23 | 1011.9 |
| 20260903111804 | 56 | 92 | 2.0 | 8.0 | 0.00 | 0.00 | 0.00 | 23 | 1011.9 |
| 20260903111704 | 56 | 92 | 6.0 | 9.0 | 0.00 | 0.00 | 0.00 | 23 | 1011.9 |
| 20260903111603 | 56 | 92 | 2.0 | 9.0 | 0.00 | 0.00 | 0.00 | 23 | 1012.0 |
| 20260903111504 | 56 | 92 | 2.0 | 9.0 | 0.00 | 0.00 | 0.00 | 23 | 1011.9 |
| 20260903111404 | 56 | 92 | 3.0 | 9.0 | 0.00 | 0.00 | 0.00 | 23 | 1011.9 |
| 20260903111304 | 56 | 92 | 3.0 | 9.0 | 0.00 | 0.00 | 0.00 | 23 | 1011.9 |
| 20260903111205 | 56 | 93 | 5.0 | 9.0 | 0.00 | 0.00 | 0.00 | 22 | 1011.8 |
| 20260903111104 | 57 | 93 | 3.0 | 9.0 | 0.00 | 0.00 | 0.00 | 22 | 1011.9 |
| 20260903111004 | 57 | 91 | 2.0 | 9.0 | 0.00 | 0.00 | 0.00 | 22 | 1012.0 |
| 20260903110904 | 57 | 90 | 2.0 | 9.0 | 0.00 | 0.00 | 0.00 | 23 | 1012.0 |
| 20260903110804 | 57 | 90 | 4.0 | 11.0 | 0.00 | 0.00 | 0.00 | 23 | 1012.0 |
| 20260903110704 | 56 | 90 | 2.0 | 11.0 | 0.00 | 0.00 | 0.00 | 23 | 1012.0 |
| 20260903110604 | 56 | 90 | 2.0 | 11.0 | 0.00 | 0.00 | 0.00 | 23 | 1012.1 |
| 20260903110504 | 56 | 90 | 2.0 | 11.0 | 0.00 | 0.00 | 0.00 | 23 | 1012.1 |
| 20260903110404 | 56 | 90 | 2.0 | 11.0 | 0.00 | 0.00 | 0.00 | 23 | 1012.2 |
| 20260903110304 | 56 | 90 | 2.0 | 11.0 | 0.00 | 0.00 | 0.00 | 23 | 1012.0 |
| 20260903110204 | 56 | 92 | 2.0 | 11.0 | 0.00 | 0.00 | 0.00 | 23 | 1012.0 |
| 20260903110104 | 56 | 94 | 2.0 | 11.0 | 0.00 | 0.00 | 0.00 | 23 | 1012.1 |
| 20260903110004 | 56 | 94 | 2.0 | 11.0 | 0.00 | 0.00 | 0.00 | 23 | 1012.1 |
| 20260903105904 | 56 | 94 | 4.0 | 11.0 | 0.00 | 0.00 | 0.00 | 23 | 1012.2 |
| 20260903105804 | 56 | 94 | 9.0 | 11.0 | 0.00 | 0.00 | 0.00 | 23 | 1011.9 |
| 20260903105704 | 56 | 98 | 8.0 | 11.0 | 0.00 | 0.00 | 0.00 | 23 | 1012.0 |
| 20260903105604 | 56 | 104 | 7.0 | 9.0 | 0.00 | 0.00 | 0.00 | 23 | 1012.0 |
| 20260903105504 | 56 | 108 | 1.0 | 8.0 | 0.00 | 0.00 | 0.00 | 23 | 1012.1 |
| 20260903105404 | 56 | 0 | 0.0 | 8.0 | 0.00 | 0.00 | 0.00 | 23 | 1012.1 |
| 20260903105306 | 56 | 108 | 1.0 | 8.0 | 0.00 | 0.00 | 0.00 | 23 | 1012.1 |
| 20260903105203 | 56 | 105 | 1.0 | 8.0 | 0.00 | 0.00 | 0.00 | 23 | 1012.1 |
| 20260903105104 | 56 | 104 | 3.0 | 8.0 | 0.00 | 0.00 | 0.00 | 23 | 1012.0 |
| 20260903104404 | 55 | 110 | 3.0 | 8.0 | 0.00 | 0.00 | 0.00 | 24 | 1012.2 |
| 20260903104304 | 55 | 105 | 2.0 | 8.0 | 0.00 | 0.00 | 0.00 | 24 | 1012.1 |
| 20260903104203 | 55 | 107 | 3.0 | 8.0 | 0.00 | 0.00 | 0.00 | 24 | 1012.1 |
| 20260903104104 | 55 | 108 | 5.0 | 8.0 | 0.00 | 0.00 | 0.00 | 24 | 1012.1 |
| 20260903104005 | 55 | 112 | 2.0 | 5.0 | 0.00 | 0.00 | 0.00 | 24 | 1012.0 |
| 20260903103903 | 55 | 106 | 2.0 | 5.0 | 0.00 | 0.00 | 0.00 | 24 | 1011.9 |
| 20260903103804 | 55 | 102 | 2.0 | 5.0 | 0.00 | 0.00 | 0.00 | 24 | 1012.0 |
| 20260903103704 | 55 | 101 | 1.0 | 5.0 | 0.00 | 0.00 | 0.00 | 24 | 1012.1 |
| 20260903103604 | 55 | 98 | 2.0 | 5.0 | 0.00 | 0.00 | 0.00 | 23 | 1012.0 |
| 20260903103504 | 55 | 104 | 2.0 | 5.0 | 0.00 | 0.00 | 0.00 | 23 | 1012.0 |
| 20260903103404 | 55 | 110 | 2.0 | 5.0 | 0.00 | 0.00 | 0.00 | 23 | 1012.1 |
| 20260903103304 | 56 | 109 | 2.0 | 5.0 | 0.00 | 0.00 | 0.00 | 23 | 1012.0 |
| 20260903103204 | 56 | 105 | 2.0 | 7.0 | 0.00 | 0.00 | 0.00 | 22 | 1012.0 |
| 20260903103104 | 56 | 101 | 2.0 | 7.0 | 0.00 | 0.00 | 0.00 | 22 | 1012.0 |
| 20260903103004 | 56 | 101 | 4.0 | 7.0 | 0.00 | 0.00 | 0.00 | 22 | 1012.0 |
| 20260903102804 | 56 | 100 | 2.0 | 8.0 | 0.00 | 0.00 | 0.00 | 22 | 1011.9 |
| 20260903102704 | 56 | 101 | 2.0 | 8.0 | 0.00 | 0.00 | 0.00 | 22 | 1011.9 |
| 20260903102604 | 56 | 99 | 2.0 | 8.0 | 0.00 | 0.00 | 0.00 | 22 | 1012.0 |
| 20260903102504 | 56 | 95 | 2.0 | 8.0 | 0.00 | 0.00 | 0.00 | 22 | 1012.0 |
| 20260903102404 | 56 | 91 | 3.0 | 8.0 | 0.00 | 0.00 | 0.00 | 21 | 1012.0 |
| 20260903102305 | 56 | 90 | 4.0 | 8.0 | 0.00 | 0.00 | 0.00 | 21 | 1012.0 |
| 20260903102203 | 57 | 90 | 5.0 | 9.0 | 0.00 | 0.00 | 0.00 | 21 | 1012.0 |
| 20260903102104 | 57 | 90 | 3.0 | 9.0 | 0.00 | 0.00 | 0.00 | 21 | 1011.9 |
| 20260903102004 | 57 | 90 | 2.0 | 9.0 | 0.00 | 0.00 | 0.00 | 21 | 1011.8 |
| 20260903101904 | 57 | 93 | 2.0 | 9.0 | 0.00 | 0.00 | 0.00 | 21 | 1011.9 |
| 20260903101803 | 57 | 91 | 5.0 | 9.0 | 0.00 | 0.00 | 0.00 | 20 | 1011.9 |
| 20260903101704 | 57 | 90 | 6.0 | 9.0 | 0.00 | 0.00 | 0.00 | 21 | 1011.8 |
| 20260903101604 | 57 | 90 | 6.0 | 9.0 | 0.00 | 0.00 | 0.00 | 21 | 1011.8 |
| 20260903101504 | 57 | 90 | 6.0 | 9.0 | 0.00 | 0.00 | 0.00 | 20 | 1011.8 |
| 20260903101404 | 57 | 90 | 4.0 | 9.0 | 0.00 | 0.00 | 0.00 | 20 | 1011.9 |
| 20260903100603 | 57 | 92 | 3.0 | 7.0 | 0.00 | 0.00 | 0.00 | 20 | 1011.9 |
| 20260903100504 | 57 | 92 | 3.0 | 7.0 | 0.00 | 0.00 | 0.00 | 20 | 1011.9 |
| 20260903100404 | 57 | 95 | 3.0 | 7.0 | 0.00 | 0.00 | 0.00 | 20 | 1011.9 |
| 20260903100304 | 57 | 101 | 3.0 | 7.0 | 0.00 | 0.00 | 0.00 | 20 | 1011.9 |
| 20260903100203 | 57 | 109 | 3.0 | 7.0 | 0.00 | 0.00 | 0.00 | 20 | 1011.9 |
| 20260903100104 | 57 | 109 | 3.0 | 7.0 | 0.00 | 0.00 | 0.00 | 20 | 1012.0 |
| 20260903100004 | 57 | 112 | 3.0 | 7.0 | 0.00 | 0.00 | 0.00 | 20 | 1012.0 |
| 20260903095904 | 57 | 119 | 3.0 | 7.0 | 0.00 | 0.00 | 0.00 | 20 | 1012.0 |
| 20260903095804 | 57 | 129 | 4.0 | 7.0 | 0.00 | 0.00 | 0.00 | 20 | 1011.9 |
| 20260903095703 | 57 | 138 | 2.0 | 6.0 | 0.00 | 0.00 | 0.00 | 20 | 1012.0 |
| 20260903095604 | 57 | 140 | 2.0 | 6.0 | 0.00 | 0.00 | 0.00 | 20 | 1012.0 |
| 20260903095504 | 57 | 0 | 0.0 | 6.0 | 0.00 | 0.00 | 0.00 | 20 | 1012.0 |
| 20260903095404 | 57 | 132 | 2.0 | 6.0 | 0.00 | 0.00 | 0.00 | 20 | 1012.0 |
| 20260903095306 | 56 | 117 | 2.0 | 6.0 | 0.00 | 0.00 | 0.00 | 20 | 1012.0 |
| 20260903095204 | 56 | 96 | 1.0 | 6.0 | 0.00 | 0.00 | 0.00 | 21 | 1012.0 |
| 20260903095104 | 56 | 82 | 2.0 | 4.0 | 0.00 | 0.00 | 0.00 | 21 | 1011.9 |
| 20260903094904 | 56 | 51 | 1.0 | 4.0 | 0.00 | 0.00 | 0.00 | 21 | 1012.0 |
| 20260903094804 | 56 | 0 | 0.0 | 5.0 | 0.00 | 0.00 | 0.00 | 20 | 1011.9 |
| 20260903094703 | 56 | 0 | 0.0 | 6.0 | 0.00 | 0.00 | 0.00 | 20 | 1012.0 |
| 20260903094604 | 56 | 0 | 0.0 | 6.0 | 0.00 | 0.00 | 0.00 | 20 | 1012.0 |
| 20260903094504 | 56 | 74 | 1.0 | 6.0 | 0.00 | 0.00 | 0.00 | 20 | 1012.0 |
| 20260903094405 | 56 | 73 | 2.0 | 6.0 | 0.00 | 0.00 | 0.00 | 20 | 1012.0 |
| 20260903094304 | 56 | 76 | 1.0 | 6.0 | 0.00 | 0.00 | 0.00 | 20 | 1011.9 |
| 20260903094204 | 56 | 82 | 2.0 | 6.0 | 0.00 | 0.00 | 0.00 | 20 | 1012.0 |
| 20260903094104 | 56 | 90 | 1.0 | 6.0 | 0.00 | 0.00 | 0.00 | 21 | 1012.0 |
| 20260903094003 | 56 | 101 | 3.0 | 6.0 | 0.00 | 0.00 | 0.00 | 21 | 1011.9 |
| 20260903093804 | 56 | 113 | 2.0 | 6.0 | 0.00 | 0.00 | 0.00 | 21 | 1011.9 |
| 20260903093704 | 56 | 113 | 4.0 | 6.0 | 0.00 | 0.00 | 0.00 | 21 | 1012.0 |
| 20260903093604 | 56 | 119 | 3.0 | 4.0 | 0.00 | 0.00 | 0.00 | 21 | 1011.8 |
| 20260903093504 | 56 | 0 | 0.0 | 4.0 | 0.00 | 0.00 | 0.00 | 22 | 1012.0 |
| 20260903093404 | 56 | 0 | 0.0 | 4.0 | 0.00 | 0.00 | 0.00 | 22 | 1011.9 |
| 20260903093304 | 56 | 110 | 1.0 | 4.0 | 0.00 | 0.00 | 0.00 | 22 | 1011.9 |
| 20260903093204 | 56 | 0 | 0.0 | 4.0 | 0.00 | 0.00 | 0.00 | 22 | 1012.0 |
| 20260903093103 | 56 | 90 | 1.0 | 4.0 | 0.00 | 0.00 | 0.00 | 22 | 1012.0 |
| 20260903093004 | 56 | 86 | 1.0 | 4.0 | 0.00 | 0.00 | 0.00 | 21 | 1012.0 |
| 20260903092904 | 56 | 86 | 1.0 | 4.0 | 0.00 | 0.00 | 0.00 | 21 | 1012.0 |
| 20260903092804 | 56 | 77 | 1.0 | 6.0 | 0.00 | 0.00 | 0.00 | 21 | 1012.0 |
| 20260903092703 | 56 | 0 | 0.0 | 6.0 | 0.00 | 0.00 | 0.00 | 21 | 1012.0 |
| 20260903092604 | 56 | 65 | 1.0 | 6.0 | 0.00 | 0.00 | 0.00 | 21 | 1012.1 |
| 20260903092504 | 56 | 62 | 2.0 | 6.0 | 0.00 | 0.00 | 0.00 | 21 | 1011.9 |
| 20260903092404 | 56 | 62 | 2.0 | 6.0 | 0.00 | 0.00 | 0.00 | 20 | 1012.0 |
| 20260903092306 | 56 | 67 | 2.0 | 6.0 | 0.00 | 0.00 | 0.00 | 20 | 1012.1 |
| 20260903092204 | 56 | 72 | 1.0 | 6.0 | 0.00 | 0.00 | 0.00 | 20 | 1012.1 |
| 20260903092104 | 56 | 77 | 2.0 | 6.0 | 0.00 | 0.00 | 0.00 | 20 | 1012.1 |
| 20260903092004 | 56 | 79 | 2.0 | 6.0 | 0.00 | 0.00 | 0.00 | 20 | 1012.2 |
| 20260903091903 | 57 | 80 | 2.0 | 6.0 | 0.00 | 0.00 | 0.00 | 20 | 1012.2 |
| 20260903091804 | 57 | 83 | 4.0 | 6.0 | 0.00 | 0.00 | 0.00 | 20 | 1012.2 |
| 20260903091704 | 57 | 91 | 2.0 | 5.0 | 0.00 | 0.00 | 0.00 | 20 | 1012.2 |
| 20260903091604 | 57 | 93 | 2.0 | 5.0 | 0.00 | 0.00 | 0.00 | 20 | 1012.2 |
| 20260903091504 | 57 | 93 | 2.0 | 5.0 | 0.00 | 0.00 | 0.00 | 20 | 1012.2 |
| 20260903091404 | 57 | 93 | 1.0 | 5.0 | 0.00 | 0.00 | 0.00 | 20 | 1012.2 |
| 20260903091304 | 57 | 93 | 2.0 | 5.0 | 0.00 | 0.00 | 0.00 | 20 | 1012.2 |
| 20260903091204 | 57 | 93 | 4.0 | 5.0 | 0.00 | 0.00 | 0.00 | 20 | 1012.2 |
| 20260903091104 | 57 | 93 | 3.0 | 5.0 | 0.00 | 0.00 | 0.00 | 20 | 1012.2 |
| 20260903091003 | 57 | 93 | 4.0 | 5.0 | 0.00 | 0.00 | 0.00 | 19 | 1012.3 |
| 20260903090904 | 57 | 93 | 4.0 | 5.0 | 0.00 | 0.00 | 0.00 | 19 | 1012.2 |
| 20260903090804 | 57 | 92 | 3.0 | 4.0 | 0.00 | 0.00 | 0.00 | 19 | 1012.2 |
| 20260903090704 | 58 | 85 | 2.0 | 4.0 | 0.00 | 0.00 | 0.00 | 20 | 1012.2 |
| 20260903090604 | 58 | 85 | 2.0 | 4.0 | 0.00 | 0.00 | 0.00 | 20 | 1012.2 |
| 20260903090504 | 58 | 84 | 2.0 | 4.0 | 0.00 | 0.00 | 0.00 | 20 | 1012.3 |
| 20260903090404 | 58 | 86 | 2.0 | 4.0 | 0.00 | 0.00 | 0.00 | 20 | 1012.3 |
| 20260903090304 | 58 | 87 | 2.0 | 4.0 | 0.00 | 0.00 | 0.00 | 20 | 1012.3 |
| 20260903090204 | 58 | 91 | 2.0 | 4.0 | 0.00 | 0.00 | 0.00 | 20 | 1012.3 |
| 20260903090104 | 58 | 99 | 2.0 | 4.0 | 0.00 | 0.00 | 0.00 | 20 | 1012.3 |
| 20260903090004 | 58 | 105 | 2.0 | 4.0 | 0.00 | 0.00 | 0.00 | 20 | 1012.3 |
| 20260903085904 | 58 | 0 | 0.0 | 6.0 | 0.00 | 0.00 | 0.00 | 20 | 1012.3 |
| 20260903085804 | 58 | 70 | 2.0 | 8.0 | 0.00 | 0.00 | 0.00 | 20 | 1012.3 |
| 20260903085703 | 58 | 99 | 2.0 | 8.0 | 0.00 | 0.00 | 0.00 | 20 | 1012.3 |
| 20260903085604 | 58 | 99 | 2.0 | 8.0 | 0.00 | 0.00 | 0.00 | 20 | 1012.3 |
| 20260903085504 | 58 | 0 | 0.0 | 8.0 | 0.00 | 0.00 | 0.00 | 20 | 1012.4 |
| 20260903085404 | 58 | 94 | 1.0 | 8.0 | 0.00 | 0.00 | 0.00 | 20 | 1012.3 |
| 20260903085306 | 58 | 0 | 0.0 | 8.0 | 0.00 | 0.00 | 0.00 | 20 | 1012.4 |
| 20260903085204 | 57 | 97 | 2.0 | 8.0 | 0.00 | 0.00 | 0.00 | 20 | 1012.4 |
| 20260903085103 | 57 | 0 | 0.0 | 8.0 | 0.00 | 0.00 | 0.00 | 20 | 1012.3 |
| 20260903085004 | 57 | 0 | 0.0 | 8.0 | 0.00 | 0.00 | 0.00 | 20 | 1012.5 |
| 20260903084904 | 57 | 99 | 3.0 | 8.0 | 0.00 | 0.00 | 0.00 | 20 | 1012.5 |
| 20260903084803 | 57 | 108 | 5.0 | 8.0 | 0.00 | 0.00 | 0.00 | 21 | 1012.4 |
| 20260903084204 | 57 | 97 | 4.0 | 9.0 | 0.00 | 0.00 | 0.00 | 20 | 1012.4 |
| 20260903084104 | 57 | 94 | 5.0 | 9.0 | 0.00 | 0.00 | 0.00 | 21 | 1012.4 |
| 20260903084004 | 57 | 91 | 4.0 | 9.0 | 0.00 | 0.00 | 0.00 | 21 | 1012.3 |
| 20260903083904 | 57 | 91 | 1.0 | 9.0 | 0.00 | 0.00 | 0.00 | 21 | 1012.3 |
| 20260903083804 | 57 | 90 | 4.0 | 9.0 | 0.00 | 0.00 | 0.00 | 21 | 1012.3 |
| 20260903083704 | 57 | 90 | 6.0 | 9.0 | 0.00 | 0.00 | 0.00 | 21 | 1012.3 |
| 20260903083604 | 57 | 88 | 6.0 | 9.0 | 0.00 | 0.00 | 0.00 | 20 | 1012.3 |
| 20260903083504 | 57 | 90 | 3.0 | 9.0 | 0.00 | 0.00 | 0.00 | 21 | 1012.3 |
| 20260903083403 | 57 | 90 | 6.0 | 9.0 | 0.00 | 0.00 | 0.00 | 21 | 1012.3 |
| 20260903082904 | 58 | 90 | 4.0 | 8.0 | 0.00 | 0.00 | 0.00 | 20 | 1012.3 |
| 20260903082803 | 58 | 91 | 5.0 | 8.0 | 0.00 | 0.00 | 0.00 | 20 | 1012.2 |
| 20260903082704 | 58 | 93 | 4.0 | 8.0 | 0.00 | 0.00 | 0.00 | 20 | 1012.3 |
| 20260903082604 | 58 | 99 | 3.0 | 8.0 | 0.00 | 0.00 | 0.00 | 20 | 1012.2 |
| 20260903082504 | 58 | 99 | 5.0 | 8.0 | 0.00 | 0.00 | 0.00 | 20 | 1012.2 |
| 20260903082403 | 58 | 100 | 4.0 | 6.0 | 0.00 | 0.00 | 0.00 | 20 | 1012.3 |
| 20260903082306 | 58 | 102 | 2.0 | 6.0 | 0.00 | 0.00 | 0.00 | 19 | 1012.3 |
| 20260903082204 | 58 | 108 | 4.0 | 6.0 | 0.00 | 0.00 | 0.00 | 19 | 1012.3 |
| 20260903082104 | 58 | 111 | 3.0 | 6.0 | 0.00 | 0.00 | 0.00 | 19 | 1012.3 |
| 20260903082003 | 58 | 0 | 0.0 | 4.0 | 0.00 | 0.00 | 0.00 | 19 | 1012.3 |
| 20260903081904 | 58 | 120 | 2.0 | 4.0 | 0.00 | 0.00 | 0.00 | 19 | 1012.3 |
| 20260903081804 | 58 | 126 | 1.0 | 4.0 | 0.00 | 0.00 | 0.00 | 19 | 1012.2 |
| 20260903081704 | 58 | 126 | 1.0 | 4.0 | 0.00 | 0.00 | 0.00 | 19 | 1012.2 |
| 20260903081603 | 58 | 116 | 2.0 | 7.0 | 0.00 | 0.00 | 0.00 | 19 | 1012.2 |
| 20260903081503 | 58 | 109 | 2.0 | 7.0 | 0.00 | 0.00 | 0.00 | 19 | 1012.2 |
| 20260903081404 | 58 | 107 | 2.0 | 7.0 | 0.00 | 0.00 | 0.00 | 19 | 1012.2 |
| 20260903081304 | 58 | 104 | 1.0 | 7.0 | 0.00 | 0.00 | 0.00 | 19 | 1012.2 |
| 20260903081203 | 58 | 0 | 0.0 | 7.0 | 0.00 | 0.00 | 0.00 | 19 | 1012.0 |
| 20260903081104 | 58 | 98 | 1.0 | 7.0 | 0.00 | 0.00 | 0.00 | 19 | 1012.1 |
| 20260903081004 | 58 | 95 | 2.0 | 7.0 | 0.00 | 0.00 | 0.00 | 19 | 1012.2 |
| 20260903080904 | 58 | 0 | 0.0 | 7.0 | 0.00 | 0.00 | 0.00 | 19 | 1012.1 |
| 20260903080804 | 58 | 0 | 0.0 | 7.0 | 0.00 | 0.00 | 0.00 | 19 | 1012.1 |
| 20260903080704 | 58 | 89 | 5.0 | 7.0 | 0.00 | 0.00 | 0.00 | 21 | 1012.2 |
| 20260903080604 | 58 | 89 | 5.0 | 7.0 | 0.00 | 0.00 | 0.00 | 21 | 1012.2 |
| 20260903080504 | 58 | 89 | 5.0 | 7.0 | 0.00 | 0.00 | 0.00 | 21 | 1012.2 |
| 20260903080404 | 58 | 89 | 5.0 | 8.0 | 0.00 | 0.00 | 0.00 | 21 | 1012.2 |
| 20260903080304 | 58 | 89 | 5.0 | 9.0 | 0.00 | 0.00 | 0.00 | 21 | 1012.1 |
| 20260903080204 | 58 | 89 | 5.0 | 10.0 | 0.00 | 0.00 | 0.00 | 21 | 1012.0 |
| 20260903080104 | 58 | 85 | 5.0 | 10.0 | 0.00 | 0.00 | 0.00 | 21 | 1012.2 |
| 20260903080004 | 58 | 85 | 5.0 | 10.0 | 0.00 | 0.00 | 0.00 | 21 | 1012.0 |
| 20260903075903 | 58 | 86 | 3.0 | 10.0 | 0.00 | 0.00 | 0.00 | 21 | 1012.1 |
| 20260903075804 | 58 | 87 | 4.0 | 10.0 | 0.00 | 0.00 | 0.00 | 21 | 1012.2 |
| 20260903075604 | 57 | 87 | 4.0 | 10.0 | 0.00 | 0.00 | 0.00 | 22 | 1012.1 |
| 20260903075503 | 57 | 87 | 6.0 | 10.0 | 0.00 | 0.00 | 0.00 | 22 | 1012.1 |
| 20260903075404 | 57 | 87 | 7.0 | 10.0 | 0.00 | 0.00 | 0.00 | 23 | 1012.1 |
| 20260903075306 | 57 | 87 | 7.0 | 10.0 | 0.00 | 0.00 | 0.00 | 23 | 1012.1 |
| 20260903075204 | 57 | 87 | 6.0 | 10.0 | 0.00 | 0.00 | 0.00 | 24 | 1012.1 |
| 20260903075103 | 57 | 90 | 3.0 | 8.0 | 0.00 | 0.00 | 0.00 | 24 | 1012.1 |
| 20260903075004 | 57 | 90 | 5.0 | 8.0 | 0.00 | 0.00 | 0.00 | 25 | 1012.1 |
| 20260903074904 | 57 | 90 | 4.0 | 8.0 | 0.00 | 0.00 | 0.00 | 25 | 1012.1 |
| 20260903074804 | 57 | 90 | 4.0 | 8.0 | 0.00 | 0.00 | 0.00 | 25 | 1012.1 |
| 20260903074703 | 58 | 90 | 5.0 | 8.0 | 0.00 | 0.00 | 0.00 | 25 | 1012.0 |
| 20260903074604 | 58 | 90 | 4.0 | 8.0 | 0.00 | 0.00 | 0.00 | 25 | 1012.2 |
| 20260903074504 | 58 | 90 | 2.0 | 8.0 | 0.00 | 0.00 | 0.00 | 25 | 1012.1 |
| 20260903074404 | 58 | 90 | 5.0 | 10.0 | 0.00 | 0.00 | 0.00 | 25 | 1012.3 |
| 20260903074304 | 58 | 90 | 4.0 | 10.0 | 0.00 | 0.00 | 0.00 | 25 | 1012.1 |
| 20260903074204 | 58 | 90 | 3.0 | 10.0 | 0.00 | 0.00 | 0.00 | 25 | 1012.2 |
| 20260903074104 | 58 | 90 | 4.0 | 15.0 | 0.00 | 0.00 | 0.00 | 25 | 1012.1 |
| 20260903074004 | 58 | 90 | 3.0 | 15.0 | 0.00 | 0.00 | 0.00 | 24 | 1012.1 |
| 20260903073903 | 58 | 90 | 3.0 | 15.0 | 0.00 | 0.00 | 0.00 | 24 | 1012.3 |
| 20260903073804 | 58 | 90 | 2.0 | 15.0 | 0.00 | 0.00 | 0.00 | 24 | 1012.2 |
| 20260903073704 | 58 | 90 | 3.0 | 15.0 | 0.00 | 0.00 | 0.00 | 24 | 1012.1 |
| 20260903073604 | 58 | 91 | 2.0 | 15.0 | 0.00 | 0.00 | 0.00 | 24 | 1012.3 |
| 20260903073504 | 58 | 92 | 8.0 | 15.0 | 0.00 | 0.00 | 0.00 | 25 | 1012.2 |
| 20260903073404 | 58 | 92 | 8.0 | 15.0 | 0.00 | 0.00 | 0.00 | 25 | 1012.2 |
| 20260903073304 | 58 | 92 | 4.0 | 15.0 | 0.00 | 0.00 | 0.00 | 25 | 1012.1 |
| 20260903073204 | 58 | 92 | 4.0 | 15.0 | 0.00 | 0.00 | 0.00 | 25 | 1012.2 |
| 20260903073103 | 58 | 92 | 5.0 | 12.0 | 0.00 | 0.00 | 0.00 | 25 | 1012.1 |
| 20260903073004 | 58 | 92 | 7.0 | 12.0 | 0.00 | 0.00 | 0.00 | 26 | 1012.1 |
| 20260903072904 | 58 | 92 | 8.0 | 12.0 | 0.00 | 0.00 | 0.00 | 26 | 1012.2 |
| 20260903072804 | 58 | 93 | 9.0 | 12.0 | 0.00 | 0.00 | 0.00 | 26 | 1012.0 |
| 20260903072704 | 58 | 92 | 4.0 | 11.0 | 0.00 | 0.00 | 0.00 | 26 | 1012.0 |
| 20260903072604 | 58 | 95 | 4.0 | 11.0 | 0.00 | 0.00 | 0.00 | 26 | 1012.1 |
| 20260903072504 | 58 | 93 | 8.0 | 11.0 | 0.00 | 0.00 | 0.00 | 26 | 1012.0 |
| 20260903072404 | 58 | 93 | 4.0 | 11.0 | 0.00 | 0.00 | 0.00 | 26 | 1012.2 |
| 20260903071804 | 59 | 95 | 6.0 | 11.0 | 0.00 | 0.00 | 0.00 | 24 | 1012.2 |
| 20260903071704 | 59 | 96 | 7.0 | 11.0 | 0.00 | 0.00 | 0.00 | 24 | 1012.1 |
| 20260903071604 | 59 | 93 | 4.0 | 11.0 | 0.00 | 0.00 | 0.00 | 24 | 1012.1 |
| 20260903071504 | 59 | 92 | 7.0 | 11.0 | 0.00 | 0.00 | 0.00 | 24 | 1012.2 |
| 20260903071403 | 59 | 93 | 4.0 | 10.0 | 0.00 | 0.00 | 0.00 | 24 | 1012.2 |
| 20260903071304 | 59 | 92 | 3.0 | 10.0 | 0.00 | 0.00 | 0.00 | 24 | 1012.2 |
| 20260903071204 | 59 | 92 | 4.0 | 10.0 | 0.00 | 0.00 | 0.00 | 24 | 1012.2 |
| 20260903071103 | 59 | 92 | 4.0 | 10.0 | 0.00 | 0.00 | 0.00 | 24 | 1012.2 |
| 20260903071003 | 59 | 90 | 4.0 | 10.0 | 0.00 | 0.00 | 0.00 | 23 | 1012.2 |
| 20260903070904 | 59 | 90 | 6.0 | 10.0 | 0.00 | 0.00 | 0.00 | 24 | 1012.2 |
| 20260903070803 | 59 | 90 | 7.0 | 8.0 | 0.00 | 0.00 | 0.00 | 24 | 1012.2 |
| 20260903070703 | 59 | 90 | 6.0 | 8.0 | 0.00 | 0.00 | 0.00 | 24 | 1012.1 |
| 20260903070604 | 59 | 90 | 6.0 | 8.0 | 0.00 | 0.00 | 0.00 | 24 | 1012.1 |
| 20260903070504 | 59 | 93 | 6.0 | 8.0 | 0.00 | 0.00 | 0.00 | 24 | 1012.2 |
| 20260903070403 | 59 | 93 | 6.0 | 8.0 | 0.00 | 0.00 | 0.00 | 24 | 1012.1 |
| 20260903070303 | 59 | 99 | 6.0 | 8.0 | 0.00 | 0.00 | 0.00 | 24 | 1012.2 |
| 20260903070204 | 59 | 103 | 6.0 | 8.0 | 0.00 | 0.00 | 0.00 | 24 | 1012.1 |
| 20260903070104 | 59 | 106 | 6.0 | 8.0 | 0.00 | 0.00 | 0.00 | 24 | 1012.1 |
| 20260903070006 | 59 | 112 | 6.0 | 8.0 | 0.00 | 0.00 | 0.00 | 24 | 1012.1 |
| 20260903065903 | 59 | 124 | 3.0 | 8.0 | 0.00 | 0.00 | 0.00 | 24 | 1012.1 |
| 20260903065804 | 59 | 129 | 2.0 | 8.0 | 0.00 | 0.00 | 0.00 | 24 | 1012.1 |
| 20260903065704 | 59 | 127 | 2.0 | 8.0 | 0.00 | 0.00 | 0.00 | 24 | 1012.1 |
| 20260903065603 | 59 | 123 | 2.0 | 8.0 | 0.00 | 0.00 | 0.00 | 24 | 1012.1 |
| 20260903065504 | 59 | 123 | 7.0 | 8.0 | 0.00 | 0.00 | 0.00 | 24 | 1012.0 |
| 20260903065404 | 59 | 124 | 6.0 | 8.0 | 0.00 | 0.00 | 0.00 | 24 | 1012.1 |
| 20260903065306 | 59 | 115 | 3.0 | 9.0 | 0.00 | 0.00 | 0.00 | 24 | 1012.2 |
| 20260903065204 | 59 | 112 | 2.0 | 9.0 | 0.00 | 0.00 | 0.00 | 24 | 1012.2 |
| 20260903065104 | 59 | 112 | 3.0 | 9.0 | 0.00 | 0.00 | 0.00 | 24 | 1012.2 |
| 20260903064904 | 59 | 105 | 3.0 | 9.0 | 0.00 | 0.00 | 0.00 | 24 | 1012.1 |
| 20260903064804 | 59 | 102 | 2.0 | 9.0 | 0.00 | 0.00 | 0.00 | 24 | 1012.3 |
| 20260903064704 | 59 | 106 | 2.0 | 9.0 | 0.00 | 0.00 | 0.00 | 25 | 1012.3 |
| 20260903064604 | 59 | 105 | 2.0 | 9.0 | 0.00 | 0.00 | 0.00 | 24 | 1012.2 |
| 20260903064504 | 59 | 105 | 2.0 | 9.0 | 0.00 | 0.00 | 0.00 | 25 | 1012.2 |
| 20260903064404 | 59 | 107 | 4.0 | 9.0 | 0.00 | 0.00 | 0.00 | 25 | 1012.1 |
| 20260903064303 | 59 | 111 | 4.0 | 7.0 | 0.00 | 0.00 | 0.00 | 25 | 1012.1 |
| 20260903064204 | 59 | 106 | 2.0 | 7.0 | 0.00 | 0.00 | 0.00 | 26 | 1012.2 |
| 20260903064104 | 59 | 107 | 2.0 | 7.0 | 0.00 | 0.00 | 0.00 | 26 | 1012.1 |
| 20260903064003 | 59 | 109 | 2.0 | 8.0 | 0.00 | 0.00 | 0.00 | 26 | 1012.2 |
| 20260903063904 | 59 | 109 | 4.0 | 8.0 | 0.00 | 0.00 | 0.00 | 26 | 1012.2 |
| 20260903063804 | 59 | 110 | 1.0 | 8.0 | 0.00 | 0.00 | 0.00 | 25 | 1012.2 |
| 20260903063703 | 59 | 111 | 3.0 | 8.0 | 0.00 | 0.00 | 0.00 | 26 | 1012.2 |
| 20260903063604 | 59 | 113 | 3.0 | 8.0 | 0.00 | 0.00 | 0.00 | 26 | 1012.2 |
| 20260903063504 | 59 | 0 | 0.0 | 8.0 | 0.00 | 0.00 | 0.00 | 25 | 1012.2 |
| 20260903063403 | 59 | 109 | 1.0 | 8.0 | 0.00 | 0.00 | 0.00 | 26 | 1012.2 |
| 20260903063304 | 59 | 99 | 2.0 | 8.0 | 0.00 | 0.00 | 0.00 | 26 | 1012.1 |
| 20260903063204 | 59 | 101 | 2.0 | 8.0 | 0.00 | 0.00 | 0.00 | 27 | 1012.1 |
| 20260903063104 | 59 | 95 | 2.0 | 8.0 | 0.00 | 0.00 | 0.00 | 26 | 1012.2 |
| 20260903063003 | 59 | 90 | 3.0 | 8.0 | 0.00 | 0.00 | 0.00 | 26 | 1012.2 |
| 20260903062904 | 59 | 94 | 2.0 | 7.0 | 0.00 | 0.00 | 0.00 | 26 | 1012.2 |
| 20260903062704 | 59 | 89 | 1.0 | 7.0 | 0.00 | 0.00 | 0.00 | 27 | 1012.3 |
| 20260903062604 | 59 | 85 | 1.0 | 7.0 | 0.00 | 0.00 | 0.00 | 27 | 1012.3 |
| 20260903062504 | 59 | 85 | 2.0 | 7.0 | 0.00 | 0.00 | 0.00 | 28 | 1012.1 |
| 20260903062404 | 59 | 86 | 3.0 | 7.0 | 0.00 | 0.00 | 0.00 | 28 | 1012.3 |
| 20260903062306 | 59 | 94 | 3.0 | 5.0 | 0.00 | 0.00 | 0.00 | 27 | 1012.2 |
| 20260903062204 | 59 | 97 | 3.0 | 5.0 | 0.00 | 0.00 | 0.00 | 27 | 1012.2 |
| 20260903061704 | 59 | 120 | 2.0 | 4.0 | 0.00 | 0.00 | 0.00 | 29 | 1012.3 |
| 20260903061604 | 59 | 125 | 2.0 | 4.0 | 0.00 | 0.00 | 0.00 | 29 | 1012.3 |
| 20260903061504 | 59 | 126 | 1.0 | 4.0 | 0.00 | 0.00 | 0.00 | 29 | 1012.3 |
| 20260903061404 | 59 | 0 | 0.0 | 4.0 | 0.00 | 0.00 | 0.00 | 29 | 1012.3 |
| 20260903061303 | 59 | 113 | 1.0 | 4.0 | 0.00 | 0.00 | 0.00 | 29 | 1012.3 |
| 20260903061204 | 59 | 107 | 2.0 | 4.0 | 0.00 | 0.00 | 0.00 | 29 | 1012.3 |
| 20260903061103 | 59 | 107 | 1.0 | 4.0 | 0.00 | 0.00 | 0.00 | 28 | 1012.4 |
| 20260903061004 | 59 | 107 | 1.0 | 4.0 | 0.00 | 0.00 | 0.00 | 28 | 1012.3 |
| 20260903060904 | 59 | 97 | 2.0 | 4.0 | 0.00 | 0.00 | 0.00 | 28 | 1012.3 |
| 20260903060804 | 60 | 94 | 1.0 | 9.0 | 0.00 | 0.00 | 0.00 | 28 | 1012.3 |
| 20260903060704 | 61 | 79 | 1.0 | 9.0 | 0.00 | 0.00 | 0.00 | 25 | 1012.3 |
| 20260903060604 | 61 | 82 | 1.0 | 9.0 | 0.00 | 0.00 | 0.00 | 25 | 1012.3 |
| 20260903060504 | 61 | 82 | 1.0 | 9.0 | 0.00 | 0.00 | 0.00 | 25 | 1012.4 |
| 20260903060403 | 61 | 85 | 1.0 | 9.0 | 0.00 | 0.00 | 0.00 | 25 | 1012.3 |
| 20260903060304 | 61 | 90 | 1.0 | 9.0 | 0.00 | 0.00 | 0.00 | 25 | 1012.3 |
| 20260903060204 | 61 | 92 | 1.0 | 9.0 | 0.00 | 0.00 | 0.00 | 25 | 1012.3 |
| 20260903060104 | 61 | 99 | 1.0 | 9.0 | 0.00 | 0.00 | 0.00 | 25 | 1012.3 |
| 20260903060003 | 61 | 96 | 2.0 | 9.0 | 0.00 | 0.00 | 0.00 | 25 | 1012.3 |
| 20260903055904 | 61 | 112 | 2.0 | 9.0 | 0.00 | 0.00 | 0.00 | 25 | 1012.3 |
| 20260903055804 | 61 | 113 | 4.0 | 9.0 | 0.00 | 0.00 | 0.00 | 25 | 1012.3 |
| 20260903055704 | 61 | 125 | 2.0 | 8.0 | 0.00 | 0.00 | 0.00 | 24 | 1012.3 |
| 20260903055604 | 62 | 123 | 2.0 | 8.0 | 0.00 | 0.00 | 0.00 | 23 | 1012.4 |
| 20260903055504 | 62 | 121 | 1.0 | 8.0 | 0.00 | 0.00 | 0.00 | 22 | 1012.5 |
| 20260903055404 | 62 | 119 | 2.0 | 8.0 | 0.00 | 0.00 | 0.00 | 22 | 1012.5 |
| 20260903055306 | 62 | 116 | 1.0 | 8.0 | 0.00 | 0.00 | 0.00 | 20 | 1012.3 |
| 20260903055204 | 62 | 102 | 3.0 | 8.0 | 0.00 | 0.00 | 0.00 | 19 | 1012.4 |
| 20260903055104 | 62 | 89 | 4.0 | 8.0 | 0.00 | 0.00 | 0.00 | 16 | 1012.5 |
| 20260903055003 | 62 | 106 | 4.0 | 8.0 | 0.00 | 0.00 | 0.00 | 17 | 1012.4 |
| 20260903054904 | 62 | 99 | 1.0 | 7.0 | 0.00 | 0.00 | 0.00 | 18 | 1012.4 |
| 20260903054804 | 62 | 96 | 1.0 | 7.0 | 0.00 | 0.00 | 0.00 | 18 | 1012.4 |
| 20260903054704 | 62 | 99 | 4.0 | 7.0 | 0.00 | 0.00 | 0.00 | 16 | 1012.3 |
| 20260903054604 | 63 | 97 | 4.0 | 7.0 | 0.00 | 0.00 | 0.00 | 16 | 1012.4 |
| 20260903054504 | 62 | 93 | 4.0 | 7.0 | 0.00 | 0.00 | 0.00 | 16 | 1012.4 |
| 20260903054104 | 62 | 104 | 4.0 | 7.0 | 0.00 | 0.00 | 0.00 | 16 | 1012.4 |
| 20260903054004 | 63 | 99 | 2.0 | 6.0 | 0.00 | 0.00 | 0.00 | 16 | 1012.5 |
| 20260903053904 | 63 | 96 | 3.0 | 6.0 | 0.00 | 0.00 | 0.00 | 16 | 1012.5 |
| 20260903053804 | 63 | 95 | 3.0 | 5.0 | 0.00 | 0.00 | 0.00 | 16 | 1012.4 |
| 20260903053704 | 63 | 95 | 2.0 | 5.0 | 0.00 | 0.00 | 0.00 | 16 | 1012.4 |
| 20260903053604 | 63 | 95 | 2.0 | 6.0 | 0.00 | 0.00 | 0.00 | 16 | 1012.4 |
| 20260903053004 | 63 | 157 | 2.0 | 11.0 | 0.00 | 0.00 | 0.00 | 16 | 1012.5 |
| 20260903052903 | 63 | 178 | 2.0 | 11.0 | 0.00 | 0.00 | 0.00 | 17 | 1012.4 |
| 20260903052804 | 63 | 199 | 2.0 | 13.0 | 0.00 | 0.00 | 0.00 | 17 | 1012.4 |
| 20260903052704 | 63 | 224 | 2.0 | 13.0 | 0.00 | 0.00 | 0.00 | 17 | 1012.4 |
| 20260903052603 | 63 | 233 | 2.0 | 13.0 | 0.00 | 0.00 | 0.00 | 17 | 1012.5 |
| 20260903052504 | 63 | 232 | 2.0 | 13.0 | 0.00 | 0.00 | 0.00 | 17 | 1012.5 |
| 20260903052404 | 63 | 231 | 2.0 | 13.0 | 0.00 | 0.00 | 0.00 | 17 | 1012.4 |
| 20260903052306 | 63 | 237 | 2.0 | 13.0 | 0.00 | 0.00 | 0.00 | 16 | 1012.4 |
| 20260903052204 | 63 | 237 | 5.0 | 13.0 | 0.00 | 0.00 | 0.00 | 16 | 1012.4 |
| 20260903052104 | 63 | 241 | 5.0 | 13.0 | 0.00 | 0.00 | 0.00 | 16 | 1012.3 |
| 20260903052004 | 63 | 242 | 4.0 | 13.0 | 0.00 | 0.00 | 0.00 | 16 | 1012.3 |
| 20260903051904 | 63 | 243 | 4.0 | 17.0 | 0.00 | 0.00 | 0.00 | 16 | 1012.4 |
| 20260903051804 | 63 | 240 | 5.0 | 17.0 | 0.00 | 0.00 | 0.00 | 17 | 1012.4 |
| 20260903051704 | 63 | 231 | 2.0 | 17.0 | 0.00 | 0.00 | 0.00 | 17 | 1012.4 |
| 20260903051603 | 64 | 230 | 3.0 | 17.0 | 0.00 | 0.00 | 0.00 | 16 | 1012.4 |
| 20260903051504 | 64 | 229 | 3.0 | 17.0 | 0.00 | 0.00 | 0.00 | 16 | 1012.3 |
| 20260903051403 | 64 | 225 | 5.0 | 17.0 | 0.00 | 0.00 | 0.00 | 17 | 1012.3 |
| 20260903051304 | 64 | 228 | 5.0 | 17.0 | 0.00 | 0.00 | 0.00 | 16 | 1012.3 |
| 20260903051204 | 64 | 231 | 4.0 | 17.0 | 0.00 | 0.00 | 0.00 | 16 | 1012.3 |
| 20260903051103 | 64 | 231 | 5.0 | 17.0 | 0.00 | 0.00 | 0.00 | 16 | 1012.3 |
| 20260903051003 | 63 | 231 | 7.0 | 17.0 | 0.00 | 0.00 | 0.00 | 16 | 1012.3 |
| 20260903050904 | 63 | 235 | 9.0 | 17.0 | 0.00 | 0.00 | 0.00 | 16 | 1012.3 |
| 20260903050804 | 64 | 233 | 6.0 | 15.0 | 0.00 | 0.00 | 0.00 | 17 | 1012.2 |
| 20260903050704 | 64 | 232 | 7.0 | 13.0 | 0.00 | 0.00 | 0.00 | 17 | 1012.3 |
| 20260903050604 | 64 | 234 | 6.0 | 15.0 | 0.00 | 0.00 | 0.00 | 17 | 1012.4 |
| 20260903050504 | 64 | 237 | 5.0 | 15.0 | 0.00 | 0.00 | 0.00 | 17 | 1012.4 |
| 20260903050404 | 64 | 232 | 4.0 | 18.0 | 0.00 | 0.00 | 0.00 | 17 | 1012.3 |
| 20260903050304 | 64 | 227 | 5.0 | 18.0 | 0.00 | 0.00 | 0.00 | 17 | 1012.3 |
| 20260903050204 | 64 | 223 | 4.0 | 18.0 | 0.00 | 0.00 | 0.00 | 17 | 1012.3 |
| 20260903050104 | 64 | 223 | 7.0 | 18.0 | 0.00 | 0.00 | 0.00 | 17 | 1012.3 |
| 20260903045603 | 64 | 222 | 6.0 | 18.0 | 0.00 | 0.00 | 0.00 | 16 | 1012.3 |
| 20260903045504 | 64 | 222 | 11.0 | 18.0 | 0.00 | 0.00 | 0.00 | 16 | 1012.3 |
| 20260903045404 | 64 | 225 | 12.0 | 18.0 | 0.00 | 0.00 | 0.00 | 16 | 1012.3 |
| 20260903045306 | 64 | 229 | 11.0 | 17.0 | 0.00 | 0.00 | 0.00 | 16 | 1012.3 |
| 20260903045204 | 64 | 229 | 12.0 | 17.0 | 0.00 | 0.00 | 0.00 | 16 | 1012.3 |
| 20260903045103 | 64 | 233 | 12.0 | 18.0 | 0.00 | 0.00 | 0.00 | 16 | 1012.3 |
| 20260903045004 | 64 | 235 | 10.0 | 21.0 | 0.00 | 0.00 | 0.00 | 16 | 1012.3 |
| 20260903044904 | 64 | 235 | 8.0 | 21.0 | 0.00 | 0.00 | 0.00 | 16 | 1012.3 |
| 20260903044804 | 64 | 236 | 9.0 | 21.0 | 0.00 | 0.00 | 0.00 | 16 | 1012.3 |
| 20260903044704 | 64 | 232 | 11.0 | 21.0 | 0.00 | 0.00 | 0.00 | 16 | 1012.2 |
| 20260903044603 | 64 | 227 | 12.0 | 21.0 | 0.00 | 0.00 | 0.00 | 17 | 1012.2 |
| 20260903044504 | 64 | 227 | 8.0 | 21.0 | 0.00 | 0.00 | 0.00 | 17 | 1012.3 |
| 20260903044404 | 64 | 227 | 11.0 | 21.0 | 0.00 | 0.00 | 0.00 | 17 | 1012.2 |
| 20260903044303 | 64 | 227 | 8.0 | 21.0 | 0.00 | 0.00 | 0.00 | 17 | 1012.3 |
| 20260903044204 | 64 | 228 | 8.0 | 21.0 | 0.00 | 0.00 | 0.00 | 17 | 1012.2 |
| 20260903044104 | 64 | 225 | 11.0 | 21.0 | 0.00 | 0.00 | 0.00 | 17 | 1012.2 |
| 20260903044003 | 64 | 222 | 15.0 | 21.0 | 0.00 | 0.00 | 0.00 | 17 | 1012.2 |
| 20260903043904 | 64 | 225 | 8.0 | 18.0 | 0.00 | 0.00 | 0.00 | 18 | 1012.2 |
| 20260903043804 | 64 | 230 | 11.0 | 18.0 | 0.00 | 0.00 | 0.00 | 17 | 1012.2 |
| 20260903043703 | 64 | 234 | 11.0 | 15.0 | 0.00 | 0.00 | 0.00 | 17 | 1012.2 |
| 20260903043604 | 64 | 236 | 8.0 | 16.0 | 0.00 | 0.00 | 0.00 | 17 | 1012.2 |
| 20260903043504 | 64 | 236 | 8.0 | 16.0 | 0.00 | 0.00 | 0.00 | 18 | 1012.2 |
| 20260903043403 | 64 | 236 | 7.0 | 16.0 | 0.00 | 0.00 | 0.00 | 18 | 1012.2 |
| 20260903043304 | 64 | 232 | 8.0 | 16.0 | 0.00 | 0.00 | 0.00 | 18 | 1012.2 |
| 20260903043204 | 64 | 231 | 9.0 | 17.0 | 0.00 | 0.00 | 0.00 | 18 | 1012.1 |
| 20260903043103 | 64 | 242 | 6.0 | 17.0 | 0.00 | 0.00 | 0.00 | 18 | 1012.1 |
| 20260903043004 | 64 | 256 | 8.0 | 17.0 | 0.00 | 0.00 | 0.00 | 18 | 1012.1 |
| 20260903042904 | 64 | 263 | 8.0 | 17.0 | 0.00 | 0.00 | 0.00 | 18 | 1012.1 |
| 20260903042803 | 64 | 269 | 8.0 | 17.0 | 0.00 | 0.00 | 0.00 | 18 | 1012.1 |
| 20260903042704 | 64 | 278 | 5.0 | 17.0 | 0.00 | 0.00 | 0.00 | 18 | 1012.2 |
| 20260903042604 | 64 | 289 | 11.0 | 17.0 | 0.00 | 0.00 | 0.00 | 18 | 1012.0 |
| 20260903042504 | 64 | 298 | 9.0 | 17.0 | 0.00 | 0.00 | 0.00 | 18 | 1012.1 |
| 20260903042404 | 64 | 304 | 8.0 | 17.0 | 0.00 | 0.00 | 0.00 | 19 | 1012.1 |
| 20260903042306 | 64 | 303 | 8.0 | 17.0 | 0.00 | 0.00 | 0.00 | 19 | 1012.0 |
| 20260903042204 | 64 | 302 | 10.0 | 17.0 | 0.00 | 0.00 | 0.00 | 19 | 1012.0 |
| 20260903042104 | 64 | 294 | 10.0 | 19.0 | 0.00 | 0.00 | 0.00 | 19 | 1012.1 |
| 20260903042003 | 64 | 284 | 10.0 | 19.0 | 0.00 | 0.00 | 0.00 | 19 | 1012.1 |
| 20260903041904 | 64 | 271 | 10.0 | 19.0 | 0.00 | 0.00 | 0.00 | 19 | 1012.1 |
| 20260903041804 | 64 | 270 | 10.0 | 19.0 | 0.00 | 0.00 | 0.00 | 19 | 1012.2 |
| 20260903041204 | 64 | 224 | 7.0 | 19.0 | 0.00 | 0.00 | 0.00 | 19 | 1012.1 |
| 20260903041104 | 64 | 223 | 8.0 | 19.0 | 0.00 | 0.00 | 0.00 | 19 | 1012.1 |
| 20260903041003 | 64 | 225 | 10.0 | 19.0 | 0.00 | 0.00 | 0.00 | 19 | 1012.0 |
| 20260903040903 | 64 | 234 | 11.0 | 20.0 | 0.00 | 0.00 | 0.00 | 19 | 1012.0 |
| 20260903040804 | 64 | 228 | 9.0 | 20.0 | 0.00 | 0.00 | 0.00 | 19 | 1011.8 |
| 20260903040704 | 64 | 233 | 8.0 | 20.0 | 0.00 | 0.00 | 0.00 | 19 | 1012.0 |
| 20260903040604 | 64 | 226 | 10.0 | 20.0 | 0.00 | 0.00 | 0.00 | 19 | 1011.8 |
| 20260903040504 | 64 | 227 | 13.0 | 21.0 | 0.00 | 0.00 | 0.00 | 19 | 1011.9 |
| 20260903040404 | 64 | 231 | 11.0 | 21.0 | 0.00 | 0.00 | 0.00 | 19 | 1011.9 |
| 20260903040304 | 64 | 239 | 11.0 | 21.0 | 0.00 | 0.00 | 0.00 | 18 | 1011.9 |
| 20260903040203 | 64 | 242 | 10.0 | 21.0 | 0.00 | 0.00 | 0.00 | 19 | 1011.8 |
| 20260903040104 | 64 | 242 | 10.0 | 21.0 | 0.00 | 0.00 | 0.00 | 19 | 1011.8 |
| 20260903035503 | 65 | 236 | 13.0 | 25.0 | 0.00 | 0.00 | 0.00 | 19 | 1011.6 |
| 20260903035404 | 65 | 236 | 11.0 | 25.0 | 0.00 | 0.00 | 0.00 | 18 | 1011.5 |
| 20260903035306 | 65 | 232 | 12.0 | 25.0 | 0.00 | 0.00 | 0.00 | 18 | 1011.5 |
| 20260903035203 | 65 | 230 | 11.0 | 25.0 | 0.00 | 0.00 | 0.00 | 18 | 1011.7 |
| 20260903035104 | 65 | 230 | 11.0 | 26.0 | 0.00 | 0.00 | 0.00 | 18 | 1011.6 |
| 20260903035004 | 65 | 225 | 13.0 | 26.0 | 0.00 | 0.00 | 0.00 | 18 | 1011.6 |
| 20260903034904 | 65 | 230 | 15.0 | 26.0 | 0.00 | 0.00 | 0.00 | 19 | 1011.6 |
| 20260903034804 | 65 | 227 | 13.0 | 26.0 | 0.00 | 0.00 | 0.00 | 19 | 1011.6 |
| 20260903034703 | 65 | 227 | 13.0 | 26.0 | 0.00 | 0.00 | 0.00 | 19 | 1011.7 |
| 20260903034604 | 65 | 234 | 17.0 | 26.0 | 0.00 | 0.00 | 0.00 | 19 | 1011.7 |
| 20260903034503 | 65 | 240 | 12.0 | 26.0 | 0.00 | 0.00 | 0.00 | 19 | 1011.6 |
| 20260903034403 | 65 | 237 | 11.0 | 26.0 | 0.00 | 0.00 | 0.00 | 19 | 1011.7 |
| 20260903034304 | 64 | 236 | 11.0 | 26.0 | 0.00 | 0.00 | 0.00 | 19 | 1011.6 |
| 20260903034204 | 64 | 234 | 11.0 | 26.0 | 0.00 | 0.00 | 0.00 | 19 | 1011.7 |
| 20260903034103 | 65 | 234 | 15.0 | 26.0 | 0.00 | 0.00 | 0.00 | 19 | 1011.5 |
| 20260903034004 | 65 | 237 | 15.0 | 21.0 | 0.00 | 0.00 | 0.00 | 19 | 1011.4 |
| 20260903033904 | 65 | 234 | 11.0 | 19.0 | 0.00 | 0.00 | 0.00 | 19 | 1011.6 |
| 20260903033803 | 65 | 246 | 10.0 | 19.0 | 0.00 | 0.00 | 0.00 | 19 | 1011.7 |
| 20260903033704 | 65 | 255 | 10.0 | 19.0 | 0.00 | 0.00 | 0.00 | 19 | 1011.6 |
| 20260903033604 | 65 | 245 | 14.0 | 19.0 | 0.00 | 0.00 | 0.00 | 19 | 1011.6 |
| 20260903033503 | 65 | 236 | 11.0 | 18.0 | 0.00 | 0.00 | 0.00 | 19 | 1011.7 |
| 20260903033404 | 65 | 246 | 12.0 | 18.0 | 0.00 | 0.00 | 0.00 | 19 | 1011.7 |
| 20260903033304 | 65 | 248 | 14.0 | 18.0 | 0.00 | 0.00 | 0.00 | 19 | 1011.7 |
| 20260903033206 | 65 | 252 | 12.0 | 17.0 | 0.00 | 0.00 | 0.00 | 20 | 1011.7 |
| 20260903033104 | 65 | 257 | 11.0 | 17.0 | 0.00 | 0.00 | 0.00 | 20 | 1011.7 |
| 20260903033004 | 65 | 259 | 11.0 | 17.0 | 0.00 | 0.00 | 0.00 | 20 | 1011.8 |
| 20260903032904 | 65 | 251 | 11.0 | 17.0 | 0.00 | 0.00 | 0.00 | 20 | 1011.8 |
| 20260903032804 | 65 | 245 | 11.0 | 17.0 | 0.00 | 0.00 | 0.00 | 20 | 1011.8 |
| 20260903032703 | 65 | 241 | 11.0 | 17.0 | 0.00 | 0.00 | 0.00 | 20 | 1011.5 |
| 20260903032604 | 65 | 244 | 13.0 | 17.0 | 0.00 | 0.00 | 0.00 | 20 | 1011.8 |
| 20260903032504 | 65 | 246 | 9.0 | 17.0 | 0.00 | 0.00 | 0.00 | 20 | 1011.8 |
| 20260903032403 | 65 | 238 | 10.0 | 17.0 | 0.00 | 0.00 | 0.00 | 20 | 1011.7 |
| 20260903031704 | 65 | 241 | 9.0 | 21.0 | 0.00 | 0.00 | 0.00 | 21 | 1011.8 |
| 20260903031604 | 65 | 239 | 9.0 | 21.0 | 0.00 | 0.00 | 0.00 | 21 | 1011.7 |
| 20260903031504 | 65 | 239 | 9.0 | 21.0 | 0.00 | 0.00 | 0.00 | 21 | 1011.7 |
| 20260903031403 | 65 | 240 | 11.0 | 21.0 | 0.00 | 0.00 | 0.00 | 20 | 1011.7 |
| 20260903031204 | 65 | 237 | 10.0 | 21.0 | 0.00 | 0.00 | 0.00 | 20 | 1011.7 |
| 20260903031104 | 65 | 236 | 8.0 | 21.0 | 0.00 | 0.00 | 0.00 | 20 | 1011.7 |
| 20260903031004 | 65 | 234 | 10.0 | 21.0 | 0.00 | 0.00 | 0.00 | 20 | 1011.7 |
| 20260903030904 | 65 | 231 | 11.0 | 21.0 | 0.00 | 0.00 | 0.00 | 21 | 1011.8 |
| 20260903030804 | 65 | 230 | 11.0 | 21.0 | 0.00 | 0.00 | 0.00 | 20 | 1011.8 |
| 20260903030204 | 65 | 225 | 7.0 | 11.0 | 0.00 | 0.00 | 0.00 | 21 | 1011.6 |
| 20260903030104 | 65 | 225 | 7.0 | 11.0 | 0.00 | 0.00 | 0.00 | 21 | 1011.6 |
| 20260903030004 | 65 | 225 | 7.0 | 11.0 | 0.00 | 0.00 | 0.00 | 21 | 1011.7 |
| 20260903025904 | 67 | 223 | 7.0 | 15.0 | 0.00 | 0.00 | 0.00 | 21 | 1011.6 |
| 20260903025804 | 65 | 221 | 7.0 | 15.0 | 0.00 | 0.00 | 0.00 | 20 | 1011.7 |
| 20260903025704 | 65 | 221 | 7.0 | 15.0 | 0.00 | 0.00 | 0.00 | 20 | 1011.7 |
| 20260903025604 | 66 | 226 | 7.0 | 15.0 | 0.00 | 0.00 | 0.00 | 20 | 1011.6 |
| 20260903025504 | 66 | 226 | 4.0 | 15.0 | 0.00 | 0.00 | 0.00 | 20 | 1011.6 |
| 20260903025403 | 66 | 228 | 4.0 | 15.0 | 0.00 | 0.00 | 0.00 | 20 | 1011.6 |
| 20260903025306 | 66 | 230 | 4.0 | 15.0 | 0.00 | 0.00 | 0.00 | 20 | 1011.6 |
| 20260903025204 | 66 | 230 | 5.0 | 15.0 | 0.00 | 0.00 | 0.00 | 20 | 1011.5 |
| 20260903025103 | 66 | 230 | 8.0 | 15.0 | 0.00 | 0.00 | 0.00 | 19 | 1011.8 |
| 20260903025004 | 66 | 227 | 8.0 | 15.0 | 0.00 | 0.00 | 0.00 | 19 | 1011.7 |
| 20260903024904 | 67 | 226 | 10.0 | 15.0 | 0.00 | 0.00 | 0.00 | 19 | 1011.7 |
| 20260903024804 | 67 | 226 | 8.0 | 14.0 | 0.00 | 0.00 | 0.00 | 19 | 1011.7 |
| 20260903024704 | 67 | 226 | 6.0 | 14.0 | 0.00 | 0.00 | 0.00 | 18 | 1011.7 |
| 20260903024603 | 67 | 222 | 8.0 | 14.0 | 0.00 | 0.00 | 0.00 | 18 | 1011.5 |
| 20260903024504 | 67 | 226 | 8.0 | 14.0 | 0.00 | 0.00 | 0.00 | 18 | 1011.6 |
| 20260903024403 | 67 | 226 | 8.0 | 15.0 | 0.00 | 0.00 | 0.00 | 18 | 1011.7 |
| 20260903024303 | 67 | 230 | 8.0 | 15.0 | 0.00 | 0.00 | 0.00 | 18 | 1011.5 |
| 20260903024204 | 67 | 233 | 6.0 | 15.0 | 0.00 | 0.00 | 0.00 | 17 | 1011.6 |
| 20260903024104 | 67 | 232 | 7.0 | 15.0 | 0.00 | 0.00 | 0.00 | 17 | 1011.5 |
| 20260903024003 | 67 | 235 | 8.0 | 15.0 | 0.00 | 0.00 | 0.00 | 17 | 1011.5 |
| 20260903023904 | 67 | 239 | 8.0 | 16.0 | 0.00 | 0.00 | 0.00 | 17 | 1011.5 |
| 20260903023804 | 67 | 245 | 11.0 | 18.0 | 0.00 | 0.00 | 0.00 | 17 | 1011.5 |
| 20260903023704 | 67 | 245 | 10.0 | 18.0 | 0.00 | 0.00 | 0.00 | 17 | 1011.6 |
| 20260903023604 | 67 | 245 | 8.0 | 18.0 | 0.00 | 0.00 | 0.00 | 17 | 1011.6 |
| 20260903023504 | 67 | 240 | 9.0 | 18.0 | 0.00 | 0.00 | 0.00 | 17 | 1011.4 |
| 20260903023404 | 67 | 239 | 9.0 | 18.0 | 0.00 | 0.00 | 0.00 | 17 | 1011.6 |
| 20260903023304 | 67 | 236 | 10.0 | 18.0 | 0.00 | 0.00 | 0.00 | 17 | 1011.5 |
| 20260903023204 | 67 | 234 | 12.0 | 18.0 | 0.00 | 0.00 | 0.00 | 17 | 1011.4 |
| 20260903023103 | 67 | 237 | 10.0 | 18.0 | 0.00 | 0.00 | 0.00 | 17 | 1011.5 |
| 20260903023004 | 67 | 244 | 10.0 | 18.0 | 0.00 | 0.00 | 0.00 | 17 | 1011.5 |
| 20260903022904 | 67 | 243 | 12.0 | 18.0 | 0.00 | 0.00 | 0.00 | 17 | 1011.6 |
| 20260903022804 | 67 | 244 | 14.0 | 18.0 | 0.00 | 0.00 | 0.00 | 17 | 1011.5 |
| 20260903022704 | 67 | 247 | 10.0 | 17.0 | 0.00 | 0.00 | 0.00 | 16 | 1011.4 |
| 20260903022603 | 67 | 253 | 11.0 | 17.0 | 0.00 | 0.00 | 0.00 | 16 | 1011.4 |
| 20260903022503 | 67 | 263 | 10.0 | 17.0 | 0.00 | 0.00 | 0.00 | 16 | 1011.6 |
| 20260903022404 | 67 | 270 | 10.0 | 17.0 | 0.00 | 0.00 | 0.00 | 16 | 1011.5 |
| 20260903021704 | 68 | 263 | 8.0 | 17.0 | 0.00 | 0.00 | 0.00 | 14 | 1011.4 |
| 20260903021603 | 68 | 263 | 8.0 | 17.0 | 0.00 | 0.00 | 0.00 | 14 | 1011.4 |
| 20260903021503 | 68 | 258 | 8.0 | 17.0 | 0.00 | 0.00 | 0.00 | 14 | 1011.5 |
| 20260903021404 | 68 | 251 | 6.0 | 17.0 | 0.00 | 0.00 | 0.00 | 14 | 1011.4 |
| 20260903021304 | 68 | 251 | 11.0 | 17.0 | 0.00 | 0.00 | 0.00 | 14 | 1011.4 |
| 20260903021203 | 68 | 248 | 11.0 | 17.0 | 0.00 | 0.00 | 0.00 | 14 | 1011.4 |
| 20260903021004 | 69 | 260 | 11.0 | 15.0 | 0.00 | 0.00 | 0.00 | 13 | 1011.4 |
| 20260903020903 | 69 | 258 | 8.0 | 15.0 | 0.00 | 0.00 | 0.00 | 13 | 1011.4 |
| 20260903020804 | 69 | 258 | 8.0 | 15.0 | 0.00 | 0.00 | 0.00 | 13 | 1011.3 |
| 20260903020704 | 69 | 257 | 10.0 | 15.0 | 0.00 | 0.00 | 0.00 | 13 | 1011.5 |
| 20260903020604 | 69 | 264 | 9.0 | 17.0 | 0.00 | 0.00 | 0.00 | 13 | 1011.5 |
| 20260903020504 | 69 | 259 | 8.0 | 17.0 | 0.00 | 0.00 | 0.00 | 13 | 1011.4 |
| 20260903020403 | 69 | 260 | 10.0 | 17.0 | 0.00 | 0.00 | 0.00 | 13 | 1011.3 |
| 20260903020304 | 69 | 258 | 5.0 | 17.0 | 0.00 | 0.00 | 0.00 | 14 | 1011.4 |
| 20260903020204 | 69 | 253 | 7.0 | 17.0 | 0.00 | 0.00 | 0.00 | 13 | 1011.3 |
| 20260903020103 | 70 | 256 | 9.0 | 17.0 | 0.00 | 0.00 | 0.00 | 13 | 1011.4 |
| 20260903020004 | 70 | 243 | 9.0 | 17.0 | 0.00 | 0.00 | 0.00 | 13 | 1011.4 |
| 20260903015904 | 70 | 247 | 11.0 | 17.0 | 0.00 | 0.00 | 0.00 | 12 | 1011.4 |
| 20260903015804 | 70 | 259 | 7.0 | 17.0 | 0.00 | 0.00 | 0.00 | 12 | 1011.3 |
| 20260903015704 | 70 | 259 | 10.0 | 17.0 | 0.00 | 0.00 | 0.00 | 11 | 1011.5 |
| 20260903015604 | 70 | 250 | 13.0 | 17.0 | 0.00 | 0.00 | 0.00 | 11 | 1011.4 |
| 20260903015504 | 71 | 247 | 10.0 | 15.0 | 0.00 | 0.00 | 0.00 | 12 | 1011.4 |
| 20260903015403 | 71 | 246 | 8.0 | 15.0 | 0.00 | 0.00 | 0.00 | 12 | 1011.4 |
| 20260903015306 | 71 | 246 | 7.0 | 15.0 | 0.00 | 0.00 | 0.00 | 12 | 1011.3 |
| 20260903015204 | 71 | 243 | 8.0 | 15.0 | 0.00 | 0.00 | 0.00 | 11 | 1011.4 |
| 20260903015103 | 71 | 241 | 6.0 | 20.0 | 0.00 | 0.00 | 0.00 | 11 | 1011.4 |
| 20260903015004 | 71 | 244 | 7.0 | 20.0 | 0.00 | 0.00 | 0.00 | 10 | 1011.3 |
| 20260903014904 | 71 | 243 | 8.0 | 20.0 | 0.00 | 0.00 | 0.00 | 10 | 1011.4 |
| 20260903014803 | 71 | 237 | 10.0 | 20.0 | 0.00 | 0.00 | 0.00 | 10 | 1011.4 |
| 20260903014704 | 72 | 233 | 8.0 | 20.0 | 0.00 | 0.00 | 0.00 | 10 | 1011.4 |
| 20260903014604 | 72 | 233 | 10.0 | 20.0 | 0.00 | 0.00 | 0.00 | 10 | 1011.3 |
| 20260903014504 | 72 | 233 | 10.0 | 20.0 | 0.00 | 0.00 | 0.00 | 10 | 1011.3 |
| 20260903014404 | 72 | 240 | 8.0 | 20.0 | 0.00 | 0.00 | 0.00 | 10 | 1011.2 |
| 20260903014304 | 72 | 243 | 11.0 | 20.0 | 0.00 | 0.00 | 0.00 | 10 | 1011.3 |
| 20260903013804 | 72 | 233 | 12.0 | 17.0 | 0.00 | 0.00 | 0.00 | 10 | 1011.3 |
| 20260903013703 | 72 | 238 | 11.0 | 19.0 | 0.00 | 0.00 | 0.00 | 10 | 1011.4 |
| 20260903013604 | 72 | 238 | 10.0 | 21.0 | 0.00 | 0.00 | 0.00 | 10 | 1011.4 |
| 20260903013504 | 72 | 237 | 13.0 | 21.0 | 0.00 | 0.00 | 0.00 | 10 | 1011.3 |
| 20260903013404 | 73 | 233 | 8.0 | 21.0 | 0.00 | 0.00 | 0.00 | 10 | 1011.3 |
| 20260903013303 | 73 | 233 | 6.0 | 21.0 | 0.00 | 0.00 | 0.00 | 10 | 1011.3 |
| 20260903013105 | 73 | 237 | 12.0 | 21.0 | 0.00 | 0.00 | 0.00 | 10 | 1011.2 |
| 20260903013004 | 73 | 233 | 12.0 | 21.0 | 0.00 | 0.00 | 0.00 | 10 | 1011.3 |
| 20260903012904 | 73 | 233 | 9.0 | 21.0 | 0.00 | 0.00 | 0.00 | 10 | 1011.3 |
| 20260903012803 | 73 | 239 | 13.0 | 21.0 | 0.00 | 0.00 | 0.00 | 10 | 1011.2 |
| 20260903012704 | 73 | 239 | 13.0 | 21.0 | 0.00 | 0.00 | 0.00 | 10 | 1011.3 |
| 20260903012604 | 73 | 242 | 15.0 | 21.0 | 0.00 | 0.00 | 0.00 | 10 | 1011.3 |
| 20260903012503 | 73 | 245 | 13.0 | 20.0 | 0.00 | 0.00 | 0.00 | 10 | 1011.2 |
| 20260903012404 | 73 | 239 | 8.0 | 20.0 | 0.00 | 0.00 | 0.00 | 10 | 1011.1 |
| 20260903012306 | 73 | 237 | 8.0 | 20.0 | 0.00 | 0.00 | 0.00 | 10 | 1011.4 |
| 20260903012203 | 73 | 237 | 10.0 | 20.0 | 0.00 | 0.00 | 0.00 | 10 | 1011.3 |
| 20260903012104 | 73 | 238 | 11.0 | 20.0 | 0.00 | 0.00 | 0.00 | 10 | 1011.3 |
| 20260903012003 | 73 | 242 | 10.0 | 20.0 | 0.00 | 0.00 | 0.00 | 10 | 1011.3 |
| 20260903011903 | 74 | 247 | 12.0 | 20.0 | 0.00 | 0.00 | 0.00 | 10 | 1011.2 |
| 20260903011804 | 74 | 246 | 12.0 | 20.0 | 0.00 | 0.00 | 0.00 | 10 | 1011.3 |
| 20260903011703 | 74 | 243 | 10.0 | 18.0 | 0.00 | 0.00 | 0.00 | 10 | 1011.2 |
| 20260903011603 | 74 | 245 | 8.0 | 18.0 | 0.00 | 0.00 | 0.00 | 10 | 1011.3 |
| 20260903011504 | 74 | 244 | 8.0 | 18.0 | 0.00 | 0.00 | 0.00 | 10 | 1011.3 |
| 20260903011403 | 74 | 247 | 6.0 | 18.0 | 0.00 | 0.00 | 0.00 | 10 | 1011.2 |
| 20260903011303 | 74 | 252 | 10.0 | 18.0 | 0.00 | 0.00 | 0.00 | 10 | 1011.2 |
| 20260903011204 | 74 | 252 | 11.0 | 19.0 | 0.00 | 0.00 | 0.00 | 10 | 1011.3 |
| 20260903011104 | 74 | 252 | 14.0 | 19.0 | 0.00 | 0.00 | 0.00 | 10 | 1011.3 |
| 20260903011003 | 74 | 253 | 11.0 | 19.0 | 0.00 | 0.00 | 0.00 | 10 | 1011.1 |
| 20260903010904 | 74 | 257 | 11.0 | 19.0 | 0.00 | 0.00 | 0.00 | 10 | 1011.2 |
| 20260903010804 | 75 | 258 | 11.0 | 19.0 | 0.00 | 0.00 | 0.00 | 10 | 1011.2 |
| 20260903010703 | 75 | 257 | 8.0 | 19.0 | 0.00 | 0.00 | 0.00 | 10 | 1011.3 |
| 20260903010604 | 75 | 250 | 8.0 | 19.0 | 0.00 | 0.00 | 0.00 | 10 | 1011.3 |
| 20260903010504 | 75 | 250 | 10.0 | 19.0 | 0.00 | 0.00 | 0.00 | 10 | 1011.3 |
| 20260903010403 | 75 | 246 | 13.0 | 19.0 | 0.00 | 0.00 | 0.00 | 10 | 1011.3 |
| 20260903010304 | 75 | 243 | 12.0 | 19.0 | 0.00 | 0.00 | 0.00 | 10 | 1011.3 |
| 20260903005804 | 74 | 233 | 8.0 | 20.0 | 0.00 | 0.00 | 0.00 | 10 | 1011.3 |
| 20260903005703 | 74 | 235 | 10.0 | 20.0 | 0.00 | 0.00 | 0.00 | 10 | 1011.3 |
| 20260903005603 | 74 | 235 | 10.0 | 20.0 | 0.00 | 0.00 | 0.00 | 10 | 1011.3 |
| 20260903005504 | 74 | 235 | 11.0 | 20.0 | 0.00 | 0.00 | 0.00 | 10 | 1011.3 |
| 20260903005403 | 74 | 235 | 9.0 | 20.0 | 0.00 | 0.00 | 0.00 | 10 | 1011.3 |
| 20260903005306 | 74 | 232 | 8.0 | 20.0 | 0.00 | 0.00 | 0.00 | 10 | 1011.2 |
| 20260903005204 | 75 | 234 | 12.0 | 20.0 | 0.00 | 0.00 | 0.00 | 10 | 1011.3 |
| 20260903005104 | 75 | 232 | 11.0 | 19.0 | 0.00 | 0.00 | 0.00 | 10 | 1011.2 |
| 20260903005003 | 75 | 223 | 14.0 | 18.0 | 0.00 | 0.00 | 0.00 | 10 | 1011.2 |
| 20260903004903 | 75 | 222 | 10.0 | 18.0 | 0.00 | 0.00 | 0.00 | 10 | 1011.2 |
| 20260903004803 | 76 | 222 | 12.0 | 18.0 | 0.00 | 0.00 | 0.00 | 10 | 1011.2 |
| 20260903004403 | 76 | 233 | 8.0 | 15.0 | 0.00 | 0.00 | 0.00 | 10 | 1011.2 |
| 20260903004304 | 76 | 233 | 7.0 | 15.0 | 0.00 | 0.00 | 0.00 | 10 | 1011.2 |
| 20260903004204 | 76 | 229 | 8.0 | 15.0 | 0.00 | 0.00 | 0.00 | 10 | 1011.2 |
| 20260903004104 | 76 | 231 | 8.0 | 15.0 | 0.00 | 0.00 | 0.00 | 10 | 1011.3 |
| 20260903004004 | 76 | 235 | 6.0 | 17.0 | 0.00 | 0.00 | 0.00 | 10 | 1011.3 |
| 20260903003903 | 76 | 234 | 10.0 | 17.0 | 0.00 | 0.00 | 0.00 | 10 | 1011.3 |
| 20260903003803 | 76 | 232 | 9.0 | 17.0 | 0.00 | 0.00 | 0.00 | 10 | 1011.3 |
| 20260903003704 | 76 | 228 | 8.0 | 17.0 | 0.00 | 0.00 | 0.00 | 10 | 1011.3 |
| 20260903003604 | 75 | 222 | 8.0 | 17.0 | 0.00 | 0.00 | 0.00 | 10 | 1011.1 |
| 20260903003503 | 75 | 223 | 8.0 | 17.0 | 0.00 | 0.00 | 0.00 | 10 | 1011.3 |
| 20260903003404 | 75 | 228 | 8.0 | 17.0 | 0.00 | 0.00 | 0.00 | 10 | 1011.3 |
| 20260903003003 | 76 | 233 | 14.0 | 17.0 | 0.00 | 0.00 | 0.00 | 10 | 1011.3 |
| 20260903002903 | 76 | 239 | 9.0 | 17.0 | 0.00 | 0.00 | 0.00 | 10 | 1011.3 |
| 20260903002804 | 76 | 248 | 8.0 | 17.0 | 0.00 | 0.00 | 0.00 | 10 | 1011.3 |
| 20260903002703 | 76 | 251 | 8.0 | 17.0 | 0.00 | 0.00 | 0.00 | 10 | 1011.3 |
| 20260903002603 | 76 | 253 | 11.0 | 17.0 | 0.00 | 0.00 | 0.00 | 10 | 1011.3 |
| 20260903002504 | 76 | 249 | 10.0 | 17.0 | 0.00 | 0.00 | 0.00 | 10 | 1011.4 |
| 20260903002404 | 77 | 244 | 9.0 | 17.0 | 0.00 | 0.00 | 0.00 | 10 | 1011.3 |
| 20260903002306 | 77 | 248 | 10.0 | 17.0 | 0.00 | 0.00 | 0.00 | 10 | 1011.3 |
| 20260903002204 | 77 | 251 | 9.0 | 17.0 | 0.00 | 0.00 | 0.00 | 10 | 1011.3 |
| 20260903002103 | 76 | 256 | 9.0 | 17.0 | 0.00 | 0.00 | 0.00 | 10 | 1011.3 |
| 20260903002004 | 76 | 254 | 10.0 | 17.0 | 0.00 | 0.00 | 0.00 | 10 | 1011.3 |
| 20260903001904 | 76 | 243 | 9.0 | 17.0 | 0.00 | 0.00 | 0.00 | 10 | 1011.2 |
| 20260903001303 | 75 | 228 | 10.0 | 21.0 | 0.00 | 0.00 | 0.00 | 10 | 1011.3 |
| 20260903001204 | 75 | 233 | 5.0 | 21.0 | 0.00 | 0.00 | 0.00 | 10 | 1011.2 |
| 20260903001103 | 76 | 233 | 12.0 | 21.0 | 0.00 | 0.00 | 0.00 | 10 | 1011.3 |
| 20260903001003 | 76 | 233 | 13.0 | 21.0 | 0.00 | 0.00 | 0.00 | 10 | 1011.3 |
| 20260903000903 | 76 | 236 | 11.0 | 21.0 | 0.00 | 0.00 | 0.00 | 10 | 1011.3 |
| 20260903000803 | 76 | 237 | 9.0 | 21.0 | 0.00 | 0.00 | 0.00 | 10 | 1011.2 |
| 20260903000704 | 75 | 239 | 8.0 | 21.0 | 0.00 | 0.00 | 0.00 | 10 | 1011.3 |
| 20260903000603 | 75 | 239 | 7.0 | 21.0 | 0.00 | 0.00 | 0.00 | 10 | 1011.3 |
| 20260903000504 | 76 | 239 | 11.0 | 21.0 | 0.00 | 0.00 | 0.00 | 10 | 1011.3 |
| 20260903000403 | 76 | 240 | 16.0 | 21.0 | 0.00 | 0.00 | 0.00 | 10 | 1011.2 |
| 20260903000304 | 76 | 240 | 11.0 | 20.0 | 0.00 | 0.00 | 0.00 | 10 | 1011.2 |
| 20260903000103 | 76 | 234 | 11.0 | 19.0 | 0.00 | 0.00 | 0.00 | 10 | 1011.3 |
| 20260903000003 | 76 | 234 | 11.0 | 19.0 | 0.00 | 0.00 | 0.00 | 10 | 1011.4 |
| 20260902235904 | 76 | 236 | 11.0 | 19.0 | 0.00 | 0.00 | 0.00 | 10 | 1011.2 |
| 20260902235804 | 76 | 241 | 10.0 | 19.0 | 0.00 | 0.00 | 0.00 | 10 | 1011.3 |
| 20260902235703 | 76 | 239 | 8.0 | 19.0 | 0.00 | 0.00 | 0.00 | 10 | 1011.2 |
| 20260902235603 | 76 | 239 | 6.0 | 19.0 | 0.00 | 0.00 | 0.00 | 10 | 1011.3 |
| 20260902235504 | 76 | 239 | 13.0 | 19.0 | 0.00 | 0.00 | 0.00 | 10 | 1011.2 |
| 20260902235404 | 76 | 239 | 11.0 | 19.0 | 0.00 | 0.00 | 0.00 | 10 | 1011.3 |